GEFSSGP_con_probscp_114.txt.gz
Probability
0 0 0 0 0 0 0 0 0 1 0 0 1 3 5 5 3 1 0 3 11 15 17 18 18 16 11 7 5 3 2 1 2 4 5 4 3 1 0 0 0 0 0 0 0 1 1 1 0
0 0 0 0 0 0 0 0 1 1 1 1 3 5 8 9 6 2 2 8 17 21 22 21 21 18 13 9 6 4 4 2 2 4 4 3 3 2 1 0 0 0 0 0 0 0 0 0 0
0 0 0 0 0 0 0 1 2 1 1 3 5 8 10 11 9 5 8 18 25 26 26 26 25 21 15 11 8 6 5 3 3 3 3 4 3 3 2 1 0 0 0 0 0 0 0 0 0
0 0 0 0 0 0 0 1 2 2 2 4 7 11 14 15 16 18 22 28 30 29 29 31 32 27 21 15 13 10 7 6 5 4 3 3 3 2 1 0 0 0 0 0 0 0 0 0 0
0 0 0 0 0 0 0 1 2 2 3 5 9 15 21 27 32 35 33 33 34 34 35 39 41 38 32 27 23 18 13 12 10 7 4 2 2 1 0 0 0 0 0 0 0 0 0 0 0
0 0 0 0 0 0 0 1 2 3 4 8 14 22 30 40 48 47 41 39 41 44 47 51 51 47 43 39 34 28 22 20 18 13 8 5 3 1 0 0 0 0 0 0 0 0 0 0 0
0 0 0 0 0 0 1 2 3 4 5 10 20 30 39 48 55 55 52 51 53 56 60 63 59 51 46 44 41 35 28 26 24 19 15 11 7 4 2 1 1 0 0 0 0 0 0 0 0
0 0 0 0 0 0 1 2 3 5 8 14 24 34 42 51 60 64 64 64 63 62 64 67 63 55 49 46 42 38 32 29 27 24 20 15 10 7 5 4 3 2 1 0 0 0 0 0 0
0 0 0 0 0 0 1 2 4 7 14 21 28 34 42 54 65 68 67 66 63 59 58 61 61 57 52 48 45 40 34 29 29 28 24 18 12 8 5 4 4 3 2 1 0 0 0 0 0
0 0 0 0 0 0 1 3 6 11 18 24 31 35 41 52 64 67 65 63 60 55 53 53 54 54 51 49 47 43 35 31 32 33 30 23 14 8 4 4 3 3 2 1 0 0 0 0 0
0 0 0 0 0 0 1 3 6 12 18 22 28 34 38 46 55 60 60 59 57 53 50 48 49 50 50 49 48 44 38 34 33 33 31 25 17 9 5 4 2 1 1 0 0 0 0 1 1
0 0 0 0 0 0 0 1 4 10 15 19 24 31 37 41 45 49 52 53 52 49 45 44 46 48 49 50 48 44 40 35 31 28 26 23 17 10 6 4 2 0 0 0 0 0 0 0 0
0 0 0 0 0 0 0 1 3 7 12 16 22 29 36 39 39 40 44 45 45 42 40 40 42 43 44 46 46 43 39 33 28 23 21 19 14 9 5 3 2 0 0 0 0 0 0 0 0
0 0 0 0 0 0 0 1 4 9 13 16 21 27 32 35 35 36 37 38 39 38 36 36 37 36 37 38 39 40 38 33 26 21 19 16 13 8 4 2 2 1 1 1 1 1 1 0 0
0 0 0 0 0 0 0 1 6 14 18 19 22 26 28 30 31 32 32 32 34 36 35 35 34 31 30 30 31 34 34 29 22 18 16 15 12 8 6 5 3 3 3 3 2 1 1 0 0
0 0 0 0 0 0 0 1 7 15 20 21 23 24 24 25 27 31 32 31 32 34 34 34 32 29 27 26 26 27 26 21 16 13 13 12 10 9 8 7 6 5 4 3 3 2 1 0 0
0 0 0 0 0 0 1 3 9 16 21 23 24 24 23 23 25 29 31 31 31 32 33 33 30 26 26 26 25 22 18 14 9 8 9 9 8 8 9 9 9 7 5 3 2 1 1 0 0
0 0 0 0 0 0 2 8 13 17 21 24 26 26 24 23 25 25 26 28 29 29 30 29 27 25 26 25 23 19 13 8 5 5 6 7 7 7 9 10 9 8 5 2 1 0 0 0 0
0 0 0 0 0 1 5 12 16 18 21 24 26 26 24 23 21 20 21 24 25 24 25 25 26 26 25 23 19 15 11 7 5 5 6 7 7 7 8 8 8 7 4 1 0 0 0 0 0
0 0 0 0 0 1 7 14 18 20 21 23 23 23 23 21 19 18 19 20 20 19 20 22 24 25 24 21 16 11 9 9 8 7 8 8 8 7 6 5 5 4 3 1 1 1 1 0 0
0 0 0 1 0 1 5 12 18 21 20 20 21 22 22 20 19 20 20 18 15 15 16 18 20 21 20 17 12 9 9 10 9 8 8 7 7 6 5 4 3 3 3 3 2 2 2 1 0
0 0 0 0 0 0 2 6 13 17 16 16 18 19 17 15 17 19 18 14 11 11 13 15 17 17 15 12 9 7 8 9 8 7 5 5 6 6 5 4 3 3 3 3 3 3 3 2 1
0 0 0 0 0 0 0 2 6 10 11 12 14 14 11 9 10 12 11 9 8 8 10 12 14 13 10 8 7 5 5 6 7 6 4 4 5 6 5 4 3 3 3 3 3 2 3 3 2
0 0 0 0 0 0 0 0 2 4 7 10 11 8 5 4 4 5 4 4 5 6 7 8 9 8 7 6 6 5 4 4 5 5 4 3 4 4 4 3 3 3 3 3 3 3 3 3 3
0 0 0 0 0 0 0 0 0 2 5 7 7 4 2 1 1 1 1 1 3 4 4 5 6 6 6 6 6 5 4 3 4 4 3 3 3 3 3 3 3 3 3 3 3 3 3 3 3
0 0 0 0 0 0 0 0 0 2 3 4 3 1 0 0 0 0 0 0 1 1 2 3 4 4 5 5 4 4 3 3 3 3 2 2 2 3 3 3 3 3 3 3 3 3 2 2 2
0 0 0 0 0 0 0 0 0 1 2 2 1 0 0 0 0 0 0 0 0 0 1 2 2 3 3 2 1 1 2 2 2 1 1 0 1 2 2 2 2 2 2 2 2 1 1 1 1
0 0 0 0 0 0 0 0 1 2 2 1 0 0 0 0 0 0 0 0 0 0 0 1 1 1 1 0 0 0 1 1 1 0 0 0 0 1 1 1 1 1 1 1 1 0 0 0 0
0 0 0 0 0 0 0 0 1 2 2 1 0 0 0 0 0 0 0 0 0 0 0 0 0 0 0 0 0 0 0 0 0 0 0 0 0 0 0 0 0 0 0 0 0 0 0 0 0
0 0 0 0 0 0 0 0 1 2 1 0 0 0 0 0 0 0 0 0 0 0 0 0 0 0 0 0 0 0 0 0 0 0 0 0 0 0 0 0 0 0 0 0 0 0 0 0 0

GEFSSGP_con_probscp_120.txt.gz
Probability
0 0 0 0 0 0 0 0 0 0 0 0 0 0 0 0 0 0 0 2 11 20 21 20 19 20 22 25 25 24 24 25 21 17 14 12 9 7 6 4 2 1 0 0 1 0 0 1 0
0 0 0 0 0 0 0 0 0 0 0 0 0 0 0 0 0 0 0 4 12 20 22 21 22 22 22 24 25 24 23 24 21 16 13 12 11 10 8 6 4 1 0 1 1 1 1 1 1
0 0 0 0 0 0 0 0 0 0 1 1 3 3 3 1 1 1 3 9 17 23 24 25 28 26 24 24 25 24 22 21 18 14 13 13 13 12 10 7 5 2 0 1 1 1 1 1 1
0 0 0 0 0 0 0 0 0 0 2 4 7 9 8 5 4 5 9 16 22 24 25 31 36 34 29 28 28 27 25 22 18 14 13 14 14 13 10 7 5 3 1 0 0 1 1 1 0
0 0 0 0 0 0 0 0 0 0 1 5 10 15 14 10 8 12 16 20 24 26 28 38 46 42 35 32 32 33 31 28 24 20 18 16 16 14 10 7 5 3 2 1 0 0 0 0 0
0 0 0 0 0 0 0 0 1 2 3 6 12 18 20 17 14 17 22 24 27 32 36 43 49 45 36 32 32 34 35 33 31 29 26 22 18 15 12 8 6 5 3 2 1 0 0 0 0
0 0 0 0 0 0 0 1 3 7 9 10 13 20 25 25 23 23 28 30 32 39 44 48 48 42 35 32 32 33 35 34 32 31 29 25 19 15 12 11 9 8 6 3 1 0 1 1 0
0 0 0 0 0 0 0 1 4 10 15 17 18 21 29 36 36 36 38 38 39 43 49 51 49 43 39 37 35 35 34 32 30 29 27 23 19 13 12 13 12 10 8 4 2 2 4 3 2
0 0 0 0 0 0 0 1 5 10 18 24 27 30 38 48 51 48 46 44 43 45 49 52 51 48 45 43 42 41 38 35 32 29 25 21 18 14 12 12 12 10 9 6 4 6 8 7 6
0 0 0 0 0 0 0 1 3 9 17 26 33 39 45 51 53 49 45 42 38 41 46 49 50 49 49 48 48 48 46 42 37 32 27 22 19 18 15 13 12 12 11 9 7 8 9 9 10
0 0 0 0 0 0 0 1 3 7 14 20 27 35 40 43 43 42 41 38 36 37 41 43 46 49 50 52 54 55 52 47 42 38 33 27 22 21 19 16 14 13 11 11 10 9 8 8 10
0 0 0 0 0 0 1 1 3 6 9 14 20 27 32 32 33 36 39 39 38 37 37 38 42 45 48 52 55 54 50 45 42 39 36 32 27 25 22 18 15 12 9 9 8 6 5 6 7
0 0 0 0 1 1 2 2 2 5 10 15 20 25 28 26 26 30 35 38 36 34 35 37 39 40 42 46 47 45 41 37 35 34 33 31 29 25 21 18 15 10 6 5 3 2 2 4 4
0 0 0 0 0 1 3 2 2 5 12 18 21 23 25 25 24 26 30 32 31 30 31 35 36 34 33 34 35 34 34 31 29 28 28 28 25 21 18 17 13 8 5 3 2 1 1 1 1
0 0 0 0 0 0 2 3 3 6 12 18 21 22 24 25 24 25 26 27 27 28 30 32 31 29 28 28 27 28 29 28 26 25 24 23 20 16 15 14 12 8 7 6 5 3 1 0 0
0 0 0 0 0 0 0 1 3 6 10 15 18 20 22 23 23 23 22 22 24 27 30 30 28 27 27 27 25 24 23 21 19 19 18 18 16 13 12 12 11 10 9 9 7 5 3 1 0
0 0 0 0 0 0 0 0 1 4 7 11 14 15 17 18 19 20 19 18 21 24 26 27 27 27 28 26 22 18 15 12 11 11 11 11 12 12 11 11 11 11 11 11 8 6 5 3 1
0 0 0 0 0 0 0 0 1 3 6 9 11 12 13 14 15 17 17 16 17 20 20 21 22 24 26 25 18 12 8 6 5 5 5 7 10 11 10 10 9 9 10 9 7 6 5 3 1
0 0 0 0 0 0 0 0 2 4 6 8 10 11 12 13 14 15 16 14 13 15 16 16 17 20 23 23 17 9 5 4 3 3 3 4 7 9 10 9 8 8 8 6 4 4 3 1 0
0 0 0 0 0 0 0 1 4 6 6 8 9 9 8 10 11 12 13 13 12 14 14 13 13 16 20 21 16 8 4 4 3 2 1 2 5 7 8 8 7 6 6 5 3 2 2 1 0
0 0 0 0 0 0 0 1 3 6 6 7 7 6 5 5 6 8 10 11 12 13 12 10 10 12 16 17 14 8 5 4 2 1 0 1 2 4 6 8 7 5 4 4 3 2 2 1 1
0 0 0 0 0 0 0 0 2 4 5 5 5 4 3 3 3 3 5 7 8 9 10 8 8 10 12 12 11 8 5 4 1 0 0 1 1 1 2 5 5 4 3 4 3 3 3 3 2
0 0 0 0 0 0 0 0 1 2 3 3 3 3 2 1 1 1 2 3 5 6 6 6 6 6 8 8 7 6 5 2 1 0 0 0 0 0 1 2 3 3 3 3 3 3 3 3 3
0 0 0 0 0 0 0 0 0 1 1 2 2 1 1 0 0 0 1 2 3 3 4 4 4 4 4 4 5 5 4 2 0 0 0 0 0 0 0 1 2 3 3 3 3 3 3 3 3
0 0 0 0 0 0 0 0 0 0 0 1 1 1 0 0 0 0 0 1 1 1 2 2 2 2 2 2 3 3 2 1 0 0 0 0 0 0 0 2 3 3 3 3 3 3 3 3 3
0 0 0 0 0 0 0 0 0 0 0 0 0 0 0 0 0 0 0 0 0 0 1 1 1 1 1 1 1 1 0 0 0 0 0 0 0 0 0 1 2 3 3 3 3 3 3 3 3
0 0 0 0 0 0 0 0 0 0 0 0 0 0 0 0 0 0 0 0 0 0 0 0 0 0 0 0 0 0 0 0 0 0 0 0 0 0 0 1 1 1 3 3 3 3 3 2 1
0 0 0 0 0 0 0 0 0 0 0 0 0 0 0 0 0 0 0 0 0 0 0 0 0 0 0 0 0 0 0 0 0 0 0 0 0 0 0 0 0 1 2 3 3 3 3 2 1
0 0 0 0 0 0 0 0 0 0 0 0 0 0 0 0 0 0 0 0 0 0 0 0 0 0 0 0 0 0 0 0 0 0 0 0 0 0 0 0 0 1 2 3 3 3 2 1 1
0 0 0 0 0 0 0 0 0 0 0 0 0 0 0 0 0 0 0 0 0 0 0 0 0 0 0 0 0 0 0 0 0 0 0 0 0 0 0 0 0 0 1 3 3 3 2 1 0

GEFSSGP_con_probscp_126.txt.gz
Probability
0 0 0 0 0 0 0 0 0 0 0 0 0 0 0 1 0 0 0 1 5 11 11 8 9 10 12 16 18 18 16 10 4 1 0 0 1 2 1 0 0 0 0 0 0 0 0 0 0
0 0 0 0 0 0 0 0 0 0 0 0 0 0 1 1 1 0 0 2 6 9 9 8 10 12 14 18 22 25 22 17 11 6 4 2 2 3 2 1 1 0 0 0 0 0 0 0 0
0 0 0 0 0 0 0 0 0 0 0 0 1 1 2 2 1 1 2 4 6 7 7 9 10 12 16 21 27 33 32 27 21 15 11 8 7 6 5 3 2 1 1 0 0 0 0 0 0
0 0 0 0 0 0 0 0 0 0 0 0 1 3 4 4 2 2 4 6 6 5 6 9 9 11 17 23 32 40 41 39 33 27 22 17 13 11 8 5 3 3 2 1 0 0 0 0 0
0 0 0 0 0 0 0 0 0 0 0 0 1 5 9 8 5 3 5 6 6 6 7 9 9 10 15 25 36 44 48 48 44 39 32 26 21 15 11 9 6 4 3 1 0 0 0 0 0
0 0 0 0 0 0 0 0 0 0 1 2 3 9 16 16 9 5 6 6 6 8 10 10 9 8 13 23 35 45 49 50 49 46 40 33 27 20 15 12 11 8 5 3 1 0 0 0 0
0 0 0 0 0 0 0 2 2 3 4 7 9 14 23 23 14 8 9 8 8 10 12 11 9 7 9 16 28 40 44 45 47 47 41 34 28 21 16 14 14 13 10 8 6 3 2 1 0
0 0 0 0 0 0 1 5 8 9 11 17 21 26 32 31 21 16 14 12 11 12 12 12 10 8 7 10 20 31 37 37 38 39 35 29 21 15 11 13 15 15 13 11 10 7 4 2 1
0 0 0 0 0 0 1 6 11 13 17 28 37 44 45 40 32 27 23 20 18 15 14 13 12 10 8 9 16 23 27 27 26 27 27 23 15 10 10 13 18 16 13 13 12 9 5 2 0
0 0 0 0 0 0 0 3 7 12 20 32 44 52 52 46 40 34 30 29 26 20 14 12 13 13 13 16 20 21 23 24 22 22 24 23 19 14 13 19 21 17 13 13 11 8 4 1 1
0 0 0 0 0 0 0 2 7 14 22 30 39 47 49 45 39 34 33 33 30 23 16 12 13 16 19 24 29 30 31 34 33 31 31 30 28 23 21 25 25 21 17 14 12 9 4 1 1
1 1 0 0 0 0 0 4 12 20 24 27 32 39 42 38 33 31 33 33 30 25 19 15 16 22 27 34 39 39 41 45 45 43 41 38 34 32 33 34 31 28 24 20 17 12 6 2 1
0 0 0 0 0 0 1 4 12 19 21 23 28 32 32 30 30 31 32 32 30 27 24 19 21 29 36 41 43 42 44 46 46 45 44 41 37 37 38 39 38 34 31 29 25 19 14 8 5
0 0 0 0 0 0 1 3 7 10 13 18 22 24 24 25 28 30 28 27 27 26 25 24 27 33 37 38 39 40 42 43 41 40 39 38 37 37 35 36 38 38 37 35 33 29 24 18 11
0 0 0 0 0 0 1 2 4 6 9 12 15 17 20 22 24 25 24 24 21 20 24 28 30 32 32 33 35 36 36 37 37 36 35 35 35 35 34 33 34 37 38 38 37 35 31 24 17
0 0 0 0 0 0 0 1 3 6 8 10 11 13 16 18 19 21 22 21 17 18 25 30 30 29 28 29 32 32 32 32 34 34 32 30 31 33 34 33 32 33 35 35 35 33 30 27 24
0 0 0 0 0 0 0 1 3 5 7 9 11 12 13 14 15 17 18 17 15 18 26 32 31 28 27 28 28 29 31 32 32 31 28 26 25 29 32 33 34 34 32 31 31 30 29 30 31
0 0 0 0 0 0 1 1 2 3 4 7 10 11 11 12 12 13 14 15 14 17 25 31 32 30 29 28 28 28 30 30 28 26 25 23 22 24 29 32 35 34 32 30 29 30 31 32 34
0 0 0 0 0 0 1 2 2 2 2 5 7 10 11 11 12 13 13 15 16 18 22 26 29 30 30 29 29 29 28 25 23 20 18 18 18 19 23 29 31 31 29 28 29 32 33 33 34
0 0 0 0 0 0 1 1 1 1 2 3 5 7 9 11 13 14 14 15 16 17 19 22 24 27 28 28 28 28 25 20 17 15 13 12 13 14 17 22 24 24 24 25 26 30 32 31 29
0 0 0 0 0 0 0 0 0 1 2 2 3 5 8 11 13 14 13 12 13 15 17 19 20 21 23 25 26 25 23 18 15 13 11 9 9 10 13 16 18 20 21 22 22 24 26 24 21
0 0 0 0 0 0 0 0 1 3 3 3 5 6 9 10 11 11 10 8 9 10 14 16 17 17 18 20 22 21 20 18 15 11 9 8 7 7 8 11 14 16 18 19 19 18 18 16 14
0 0 0 0 0 0 0 0 2 4 4 3 6 9 8 6 6 7 6 5 5 7 9 12 14 14 14 15 17 16 15 15 12 9 7 7 6 5 6 8 10 12 13 12 13 13 12 11 11
0 0 0 0 0 0 0 0 2 5 4 4 7 7 4 2 1 2 3 3 3 4 6 8 10 10 10 11 11 11 10 10 9 7 6 6 4 4 4 5 6 7 7 7 8 10 10 10 10
0 0 0 0 0 0 0 1 3 4 5 6 7 5 2 0 0 0 1 1 1 2 3 4 6 7 7 7 6 5 5 6 6 5 4 3 2 3 3 3 3 2 3 4 4 6 9 9 9
0 0 0 0 0 0 0 1 3 3 4 7 7 4 1 0 0 0 0 0 0 1 1 1 3 4 5 4 3 3 3 3 3 2 1 1 0 1 2 1 1 0 1 2 1 3 6 7 7
0 0 0 0 0 0 0 1 2 3 4 6 6 3 0 0 0 0 0 0 0 0 0 0 1 1 2 2 2 2 1 1 1 0 0 0 0 0 0 0 0 0 0 1 0 2 5 5 5
0 0 0 0 0 0 0 0 1 2 4 5 4 2 0 0 0 0 0 0 0 0 0 0 0 0 0 1 1 1 0 0 0 0 0 0 0 0 0 0 0 0 0 1 1 2 4 4 4
0 0 0 0 0 0 0 0 0 1 3 5 4 1 0 0 0 0 0 0 0 0 0 0 0 0 0 0 0 0 0 0 0 0 0 0 1 0 0 0 0 0 0 1 2 2 3 3 3
0 0 0 0 0 0 0 0 0 1 3 6 5 2 0 1 1 1 0 0 0 0 0 0 0 0 0 0 0 0 0 0 0 0 0 0 1 0 0 0 0 0 0 1 2 3 3 3 3

GEFSSGP_con_probscp_132.txt.gz
Probability
0 0 0 0 0 0 0 0 0 0 0 0 1 3 6 5 3 4 14 34 44 33 18 14 10 4 1 0 0 0 0 0 0 0 0 0 0 0 0 0 0 0 0 0 0 0 0 0 0
0 0 0 0 0 0 0 0 1 1 0 1 2 5 8 8 6 7 21 40 41 25 14 14 13 7 2 0 0 0 0 0 0 0 0 0 0 0 0 0 0 0 0 0 0 0 0 0 0
0 0 0 0 0 0 0 1 2 3 2 1 4 8 12 14 12 13 28 41 33 16 12 17 18 12 5 2 1 0 0 0 0 0 0 0 0 0 0 0 0 0 0 0 0 0 0 0 0
0 0 0 0 0 0 0 1 3 4 3 3 8 16 21 21 19 22 31 34 23 13 14 20 22 16 9 4 2 1 1 0 0 0 0 0 0 0 0 0 0 0 0 0 0 0 0 0 0
0 0 0 0 0 0 0 1 2 3 3 6 15 26 30 26 23 26 28 23 17 15 17 21 23 19 13 9 6 4 2 2 3 2 2 2 2 2 2 2 2 1 0 0 0 0 0 0 0
0 0 0 0 0 0 0 0 2 4 6 10 20 32 35 28 23 22 19 16 19 22 20 19 20 18 16 16 14 11 9 8 9 9 8 7 7 7 7 7 6 3 1 0 0 1 1 1 0
0 0 0 0 0 0 0 1 3 7 11 14 22 33 37 29 21 15 11 15 25 27 19 14 12 12 14 18 19 18 18 18 17 16 15 12 10 9 8 8 7 5 3 1 1 2 2 2 1
0 0 0 0 0 0 0 2 7 13 17 19 26 38 40 30 19 13 13 20 30 28 17 8 5 6 8 11 15 19 20 21 20 20 17 13 8 5 5 6 7 8 6 3 3 4 4 3 2
0 0 0 0 0 0 1 5 10 17 21 26 34 42 41 31 23 21 23 27 31 28 17 9 7 6 6 7 11 12 14 17 19 19 18 14 7 3 4 8 14 15 10 6 6 7 6 4 2
0 0 0 0 0 1 4 8 13 18 22 28 36 39 36 32 30 32 33 33 31 26 20 15 15 13 11 13 13 9 10 16 19 20 21 16 9 7 9 18 26 23 14 9 9 10 8 4 1
0 0 0 0 1 4 9 15 18 19 19 24 31 33 32 32 34 37 39 37 33 28 24 23 23 21 22 25 23 16 18 24 23 23 26 22 17 18 23 32 37 30 18 10 11 12 7 2 0
0 0 0 0 2 7 13 18 19 19 18 21 26 30 31 31 33 37 41 40 36 32 29 26 27 30 36 41 37 31 34 36 32 32 36 35 33 34 39 45 45 35 22 13 12 11 6 2 1
0 0 0 1 3 7 10 12 13 15 17 19 23 26 28 29 31 35 39 40 37 35 32 29 32 39 48 53 50 43 43 43 40 41 45 45 45 46 48 48 44 35 25 19 16 12 8 6 6
0 0 0 0 1 3 4 5 6 9 13 16 18 20 21 23 26 29 34 37 37 37 35 33 37 46 53 56 54 48 45 44 43 45 45 45 47 49 48 44 40 33 26 23 19 15 13 12 12
0 0 0 0 0 0 1 2 4 7 12 15 15 15 17 19 22 24 28 32 35 38 39 38 41 48 52 52 51 49 46 44 44 44 43 43 45 49 47 42 37 33 28 24 21 19 18 15 12
0 0 0 0 0 0 1 3 5 8 12 15 14 14 15 17 19 21 23 26 31 38 43 43 44 49 51 49 50 49 46 44 44 43 44 43 44 48 49 43 38 35 32 26 22 22 21 17 13
0 0 0 0 0 0 2 5 7 7 9 12 13 13 15 17 18 20 22 25 30 39 45 46 46 48 49 48 49 49 46 43 42 42 42 42 43 47 49 45 41 38 34 27 22 21 21 18 16
0 0 0 0 0 1 3 5 7 7 8 11 14 14 16 19 19 19 20 24 29 36 41 45 46 47 48 48 49 47 43 42 41 40 40 40 40 44 46 44 41 37 31 25 20 18 18 16 15
0 0 1 0 0 1 3 4 5 6 8 12 15 17 19 21 20 18 19 24 28 30 35 40 44 46 48 49 48 44 40 38 37 36 35 35 36 36 37 36 36 31 25 21 19 16 14 13 13
0 0 0 0 0 1 2 4 5 6 8 12 16 17 18 20 19 17 19 24 27 27 29 33 37 40 43 45 45 42 38 35 33 32 31 30 29 27 25 26 28 26 22 20 19 16 13 11 11
0 0 0 0 0 1 2 5 7 7 8 13 18 18 18 20 21 17 17 19 21 22 24 27 29 31 34 37 39 39 36 34 34 33 31 28 23 18 17 17 20 21 21 20 19 15 12 10 8
0 0 0 0 0 1 2 5 10 13 14 18 22 23 21 21 19 14 11 11 12 14 17 21 23 25 28 30 32 33 32 32 32 31 28 25 19 13 10 11 14 16 18 18 17 14 13 11 10
0 0 0 0 0 0 1 3 10 17 20 23 26 25 22 17 12 8 7 7 7 7 9 13 16 19 23 25 26 26 25 25 26 25 23 21 16 10 7 8 11 13 15 15 14 14 15 15 13
0 0 0 0 0 0 0 1 8 16 20 25 27 25 20 13 7 5 6 6 5 3 4 5 8 12 16 19 19 19 19 20 20 19 18 17 15 11 8 8 10 12 13 13 13 13 15 16 16
0 0 0 0 0 0 0 1 6 12 17 23 28 25 20 13 7 4 5 5 4 2 3 3 4 6 10 12 13 13 14 14 14 14 14 14 13 11 9 9 10 11 11 11 12 12 13 13 14
0 0 0 0 0 0 0 2 7 11 15 21 25 23 21 16 8 4 3 3 3 1 2 2 2 3 5 7 8 8 8 8 9 9 10 11 10 8 7 7 8 9 9 10 10 11 11 11 11
0 0 0 0 0 0 1 3 7 11 15 18 20 21 21 17 11 5 3 3 3 1 1 1 1 1 1 3 4 4 4 4 5 6 7 7 6 5 4 4 5 7 7 8 9 10 10 9 9
0 0 0 0 0 0 0 2 5 9 14 17 18 19 20 18 13 7 5 4 3 2 1 0 0 0 0 0 1 1 1 2 3 4 3 3 3 1 1 3 4 5 6 7 8 9 8 7 5
0 0 0 0 0 0 0 1 4 9 14 18 18 19 20 18 13 8 6 5 4 2 1 0 0 0 0 0 0 0 0 1 2 2 1 1 1 0 0 1 3 4 5 6 6 5 4 2 1
0 0 0 0 0 0 0 2 6 12 16 19 19 19 21 18 12 7 6 6 5 2 0 0 0 0 0 0 0 0 0 0 1 1 0 0 0 0 0 0 1 3 3 3 3 2 1 0 0

GEFSSGP_con_probscp_138.txt.gz
Probability
0 0 0 0 0 0 0 0 0 0 1 4 9 13 14 10 5 3 1 4 14 20 14 9 8 6 4 2 0 1 2 2 2 3 5 6 6 6 4 3 2 2 1 0 0 0 0 0 0
0 0 0 0 0 0 0 0 0 1 3 7 13 19 21 17 11 7 4 8 21 26 19 12 9 7 5 3 1 0 1 1 1 2 3 4 5 4 2 1 1 1 0 0 0 0 0 0 0
0 0 0 0 0 0 0 0 2 6 9 12 17 22 24 20 16 13 10 17 28 32 25 17 13 10 6 3 1 0 0 0 0 1 1 1 2 1 0 0 0 0 0 0 0 0 0 0 0
0 0 0 0 0 0 0 1 4 10 13 17 21 26 25 21 20 20 20 26 34 36 30 24 19 15 10 5 2 1 1 0 0 0 0 0 1 1 1 1 1 1 0 0 0 0 0 0 0
0 0 0 0 0 0 0 2 6 11 16 22 29 33 30 25 24 26 25 29 35 36 33 29 27 24 18 11 6 3 1 0 0 0 0 1 1 2 2 2 2 2 1 0 0 0 0 0 0
0 0 0 0 0 0 1 4 8 14 20 28 35 37 32 27 26 26 24 26 30 32 32 31 29 28 25 20 12 6 2 1 0 1 1 2 2 3 3 1 1 2 1 0 0 0 0 0 0
0 0 0 0 0 1 3 8 12 17 24 31 38 40 36 31 28 27 24 25 28 29 29 28 27 26 27 24 17 10 5 2 1 2 2 2 3 3 2 1 1 1 1 0 0 0 0 0 1
0 0 0 0 0 1 5 12 17 22 29 36 40 42 39 35 31 30 28 28 28 26 24 23 21 21 23 22 18 14 9 5 2 2 2 3 3 2 1 1 1 1 1 1 1 1 0 0 1
0 0 0 0 0 3 8 13 19 26 35 42 44 43 39 33 28 28 27 25 23 20 17 16 16 17 18 17 15 13 11 7 4 2 3 5 4 2 1 1 2 3 2 2 2 1 0 0 1
0 0 0 0 3 7 11 14 17 26 36 42 44 43 36 29 26 25 20 17 15 13 12 10 10 13 15 15 13 12 11 9 7 6 5 6 5 2 1 2 3 4 3 3 3 3 2 1 0
0 0 1 2 5 10 13 14 17 24 29 33 36 38 34 29 27 24 17 12 9 9 9 8 7 9 11 12 12 11 11 10 10 8 7 5 3 1 1 3 4 4 4 5 5 5 5 2 1
1 1 2 4 6 9 12 16 20 23 22 22 25 28 27 26 25 23 19 13 10 9 9 10 9 8 9 11 11 10 10 10 10 8 5 3 2 1 1 3 4 3 5 7 8 7 6 2 0
1 1 3 4 5 6 9 16 20 20 18 18 18 19 19 19 20 21 19 16 13 12 11 11 10 8 10 12 11 10 10 11 10 7 5 3 3 2 1 2 3 3 4 7 8 7 5 1 0
1 1 1 2 2 3 7 13 16 15 15 16 14 13 14 15 16 18 17 15 14 13 14 12 11 10 10 11 11 10 11 12 10 7 5 3 2 2 2 2 3 2 2 4 6 5 3 1 0
0 0 1 1 1 2 5 8 9 9 12 13 10 10 12 13 13 14 13 13 13 15 15 13 11 11 10 9 10 11 12 12 9 6 4 3 2 2 2 2 3 2 2 2 2 1 1 0 0
0 0 0 0 0 1 3 5 6 7 9 9 7 7 10 10 10 11 10 9 11 13 13 11 8 8 9 10 11 12 11 10 8 5 3 3 3 3 3 2 1 2 2 1 0 0 0 0 0
0 0 0 0 0 0 1 5 6 7 9 8 6 5 7 8 8 7 6 5 5 7 8 7 6 6 8 11 13 13 12 12 10 7 6 6 5 5 4 2 1 2 3 2 0 0 0 0 0
0 0 0 0 0 0 3 6 6 7 10 11 8 6 7 8 7 6 6 5 4 3 4 5 5 6 8 10 12 12 14 18 17 14 11 9 7 8 7 4 2 2 2 1 0 0 0 0 0
0 0 0 0 0 1 5 8 7 7 10 12 10 8 9 10 8 6 7 9 7 5 6 7 7 7 7 8 8 10 14 19 20 17 14 11 9 10 10 7 4 2 1 0 0 1 1 1 1
0 0 0 0 0 1 6 9 8 8 11 13 12 10 10 9 7 5 6 9 9 8 8 8 8 9 9 7 7 8 12 14 14 13 12 11 11 11 10 8 6 5 3 2 1 2 3 3 3
0 0 0 0 0 1 3 6 8 9 14 16 13 10 8 7 5 3 3 5 7 7 7 8 8 8 9 9 9 10 10 10 8 7 8 10 9 8 7 6 6 5 5 4 3 3 4 4 3
0 0 0 0 0 0 1 3 5 10 16 17 13 9 7 6 4 2 1 2 3 4 5 5 6 6 6 8 11 12 10 7 5 4 6 6 5 4 4 5 5 5 4 3 2 2 3 3 2
0 0 0 0 0 0 0 1 3 9 16 16 12 9 7 6 4 2 1 1 1 1 2 3 3 3 3 5 8 10 9 7 5 4 4 3 2 2 3 4 5 5 4 3 2 1 1 2 1
0 0 0 0 0 0 0 0 1 5 12 16 14 8 6 5 4 3 1 0 0 0 0 1 1 1 1 1 3 4 5 5 5 5 3 2 1 1 2 3 4 5 4 3 2 1 1 1 1
0 0 0 0 0 0 0 0 1 3 9 15 13 8 4 3 2 2 1 0 0 0 0 0 0 0 0 0 0 1 2 4 4 4 2 1 0 1 2 2 3 3 3 1 1 0 0 0 0
0 0 0 0 0 0 0 0 1 5 10 14 11 7 4 2 1 1 1 0 0 0 0 0 0 0 0 0 0 0 1 2 2 2 1 0 0 0 1 1 1 2 1 0 0 0 0 0 0
0 0 0 0 0 0 0 1 2 6 10 11 8 6 4 2 0 0 0 0 0 0 0 0 0 0 0 0 1 0 0 1 1 1 0 0 0 0 0 0 0 0 0 0 0 0 0 0 0
0 0 0 0 0 0 0 0 1 4 6 6 5 5 4 1 0 0 0 0 0 0 0 0 0 0 0 0 0 0 0 0 0 0 0 0 0 0 0 0 0 0 0 0 0 0 0 0 0
0 0 0 0 0 0 0 0 0 2 3 3 3 4 3 1 0 0 0 0 0 0 0 0 0 0 0 0 0 0 0 0 0 0 0 0 0 0 0 0 0 0 0 0 0 0 0 0 0
0 0 0 0 0 0 0 0 0 1 4 4 4 3 1 0 0 0 0 0 0 0 0 0 0 0 0 0 0 0 0 0 0 0 0 0 0 0 0 0 0 0 0 0 0 0 0 0 0

GEFSSGP_con_probscp_144.txt.gz
Probability
0 0 0 0 0 0 0 0 0 0 0 0 1 1 0 0 0 1 3 8 14 16 13 11 12 13 12 11 10 8 7 7 5 4 4 5 4 3 2 1 1 0 0 0 0 0 0 0 0
0 0 0 0 0 0 0 0 0 0 0 1 2 3 2 2 2 3 5 10 16 16 13 11 11 12 12 13 12 9 6 5 3 3 3 4 3 3 3 2 2 1 0 0 0 0 0 0 0
0 0 0 0 0 0 0 0 0 1 1 2 5 7 7 6 7 6 8 14 19 18 13 12 13 12 12 13 14 10 5 2 2 2 3 3 3 3 3 2 2 1 0 0 0 0 0 0 0
0 0 0 0 0 0 0 0 1 3 4 6 10 13 12 10 9 8 11 17 23 21 17 16 16 14 12 13 13 11 5 2 2 3 3 2 2 2 1 1 1 0 0 0 0 0 0 0 0
0 0 0 0 0 0 0 1 2 4 7 12 17 19 16 12 10 12 15 20 25 27 24 22 20 17 15 14 13 11 7 4 4 3 2 1 1 1 0 0 0 1 1 1 1 1 0 0 0
0 0 0 0 0 0 1 1 3 6 10 17 25 24 18 14 15 18 19 21 25 28 29 27 23 20 19 17 16 13 10 8 6 4 2 2 1 0 0 1 1 2 2 2 2 1 1 1 1
0 0 0 0 0 1 1 2 4 8 13 21 28 27 21 20 22 23 21 20 21 25 28 26 23 21 23 22 20 16 11 8 7 6 5 5 3 2 2 3 3 3 2 2 2 2 1 1 2
0 0 0 0 0 0 1 4 8 13 18 23 26 25 24 24 26 25 23 20 19 21 25 26 24 24 25 25 23 18 12 9 8 9 8 6 5 5 5 5 4 2 1 2 3 4 3 2 2
0 0 0 0 0 0 2 6 10 17 25 28 26 26 28 30 28 26 24 21 19 22 25 26 27 28 27 26 24 21 17 13 10 9 8 5 4 5 5 4 3 2 2 3 5 8 6 3 2
0 0 0 0 0 2 4 6 9 17 25 28 29 31 33 32 29 25 21 19 20 21 22 23 26 27 26 25 26 25 22 17 12 8 6 3 2 3 4 3 2 2 3 4 6 9 9 7 5
0 0 0 1 1 2 4 6 9 15 19 22 27 32 31 28 24 20 16 15 16 16 16 17 19 21 22 23 24 24 22 17 13 10 5 2 0 1 2 2 2 3 4 5 5 6 9 9 8
1 1 1 1 0 2 4 8 13 15 15 18 23 27 25 20 16 14 11 10 10 9 10 12 14 16 19 19 19 20 20 17 13 9 5 1 0 0 1 2 3 4 6 6 4 4 5 7 7
1 2 2 0 0 3 8 14 16 15 15 17 20 21 18 13 10 10 9 8 7 6 7 8 11 13 15 16 16 16 16 14 9 5 2 0 0 0 0 1 2 3 4 4 3 3 3 3 4
1 1 1 0 0 3 10 14 14 14 14 15 17 17 13 9 8 9 10 9 8 6 5 6 7 9 9 10 10 10 10 9 6 2 0 0 0 0 0 1 1 1 1 1 1 1 2 2 2
1 1 0 0 0 1 5 8 10 12 13 13 14 14 12 10 10 10 11 10 8 6 5 4 4 4 5 5 5 5 5 5 5 3 1 1 0 0 0 0 0 0 0 0 0 0 1 1 1
0 0 0 0 0 0 2 4 7 9 11 12 13 13 12 10 9 9 9 9 8 5 4 3 2 1 2 2 3 3 3 3 4 3 2 2 1 0 0 0 0 0 0 0 0 0 0 0 0
0 0 0 0 0 0 2 4 6 6 8 9 10 10 8 6 5 5 6 8 8 6 4 3 1 1 1 1 2 3 2 1 1 1 1 2 1 0 0 0 0 0 0 0 0 0 0 0 0
0 0 0 0 0 1 3 5 5 5 5 6 7 6 5 4 4 4 5 7 8 7 5 4 3 2 1 1 2 3 2 0 0 0 0 1 1 1 0 0 0 0 0 0 0 0 0 0 0
0 0 0 1 1 2 4 6 6 5 4 4 4 4 3 4 4 4 5 6 6 6 5 4 3 3 2 2 2 2 1 0 0 0 0 0 1 1 0 0 0 0 0 0 0 0 1 1 0
0 0 0 1 2 3 4 5 5 4 2 2 3 4 4 4 4 4 4 4 4 3 4 4 3 3 2 1 2 2 1 0 0 0 0 0 0 0 0 0 0 0 0 0 0 0 1 2 1
0 0 0 1 1 2 3 3 3 2 1 2 4 4 3 3 3 3 3 2 2 2 2 3 3 1 1 1 3 3 1 0 0 0 0 0 0 0 0 1 1 0 0 0 0 0 1 2 2
0 0 0 0 0 1 1 1 1 1 2 4 4 3 1 1 2 2 1 1 1 2 2 3 3 1 0 1 3 3 1 0 0 0 0 0 0 0 0 1 2 1 0 0 0 0 1 1 1
0 0 0 0 0 0 0 0 0 0 2 3 3 2 1 1 1 1 0 0 1 2 3 3 3 2 1 1 2 1 0 0 0 0 0 0 0 0 0 1 1 1 0 0 0 0 0 0 0
0 0 0 0 0 0 0 0 0 0 1 2 2 3 2 1 0 0 0 0 1 2 2 2 2 2 2 1 1 0 0 0 0 0 0 0 0 0 0 0 0 0 0 0 0 0 0 0 0
0 0 0 0 0 0 0 0 0 0 0 1 3 4 2 0 0 0 0 0 0 1 1 1 1 1 1 1 0 0 0 0 0 0 0 0 0 0 0 0 0 0 0 0 0 0 0 0 0
0 0 0 0 0 0 0 0 0 0 0 1 4 4 2 0 0 0 0 0 0 0 0 0 0 0 0 0 0 0 0 0 0 0 0 0 0 0 0 0 0 0 0 0 0 0 0 0 0
0 0 0 0 0 0 0 0 0 0 0 2 4 4 2 1 0 0 0 0 0 0 0 0 0 0 0 0 0 0 0 0 0 0 0 0 0 0 0 0 0 0 0 0 0 0 0 0 0
0 0 0 0 0 0 0 0 0 0 0 1 3 3 2 1 0 0 0 0 0 0 0 0 0 0 0 0 0 0 0 0 0 0 0 0 0 0 0 0 0 0 0 0 0 0 0 0 0
0 0 0 0 0 0 0 0 0 0 0 0 1 2 1 0 0 0 0 0 0 0 0 0 0 0 0 0 0 0 0 0 0 0 0 0 0 0 0 0 0 0 0 0 0 0 0 0 0
0 0 0 0 0 0 0 0 0 0 0 1 1 1 0 0 0 0 0 0 0 0 0 0 0 0 0 0 0 0 0 0 0 0 0 0 0 0 0 0 0 0 0 0 0 0 0 0 0

GEFSSGP_con_probscp_150.txt.gz
Probability
0 0 0 0 0 0 0 0 0 0 0 0 0 0 0 0 0 0 0 0 2 4 2 1 2 4 9 14 18 16 11 8 7 4 2 0 0 0 0 0 0 0 0 0 0 0 0 0 0
0 0 0 0 0 0 0 0 0 0 0 0 0 0 0 0 0 0 0 1 3 6 6 3 3 6 11 15 19 19 14 10 8 6 3 1 0 0 0 0 0 0 0 0 0 0 0 0 0
0 0 0 0 0 0 0 0 1 1 1 0 0 0 1 2 2 1 1 2 5 8 8 7 5 7 11 14 17 18 15 12 10 8 6 3 1 0 0 0 0 0 0 0 0 0 0 0 0
0 0 0 0 0 0 0 0 1 2 2 1 0 2 5 6 5 4 5 5 7 8 8 8 8 8 9 11 13 13 12 11 11 10 7 4 1 0 0 0 0 0 0 0 0 0 0 0 0
0 0 0 0 0 1 1 1 1 2 2 1 1 4 9 11 10 9 8 7 8 8 8 9 10 10 9 9 10 10 10 10 10 9 8 5 2 2 1 1 1 0 0 0 0 0 0 0 0
0 0 0 0 2 4 4 3 2 3 2 2 3 7 11 14 14 13 11 8 8 8 8 9 10 11 11 12 13 13 12 11 11 10 8 5 4 5 4 3 2 1 0 0 0 0 0 0 0
0 0 0 1 3 5 4 3 3 4 4 5 6 10 14 17 17 16 13 11 8 7 7 8 8 8 10 13 16 17 17 15 14 13 10 7 5 5 5 4 3 2 1 0 0 0 0 0 0
0 0 0 1 3 5 4 3 5 7 9 11 12 14 19 23 21 18 17 15 12 10 9 8 5 5 7 10 16 20 19 18 16 15 13 9 5 2 2 3 4 4 2 0 0 0 0 0 0
0 0 1 1 3 4 3 4 7 10 13 15 18 22 27 28 24 21 21 21 20 18 16 11 8 7 7 10 16 18 17 16 14 12 11 8 4 2 2 4 5 4 2 1 0 0 0 0 0
1 1 2 2 2 3 3 6 9 10 12 15 22 28 30 27 23 21 23 26 27 25 21 16 14 12 12 15 18 17 15 14 13 11 9 8 6 4 4 4 3 2 2 1 1 1 1 1 1
2 2 3 3 2 3 5 8 11 11 12 15 20 27 28 23 18 19 24 28 29 25 20 17 17 18 19 21 22 21 20 19 18 15 11 10 8 5 4 3 3 3 3 3 3 3 3 3 3
2 3 4 4 4 4 6 11 14 14 15 16 17 22 24 19 14 15 21 25 25 22 18 17 18 20 25 27 26 25 25 24 22 18 14 11 9 6 5 4 5 6 6 4 4 5 6 5 5
1 4 6 6 6 5 6 10 13 15 16 17 16 18 20 15 11 12 15 17 19 20 19 18 19 22 26 30 29 27 27 26 25 21 17 13 11 9 7 8 8 8 7 5 4 5 6 6 6
2 4 6 6 5 4 5 8 10 12 14 15 16 16 15 12 10 11 12 13 15 18 20 19 20 24 27 30 29 27 27 28 25 22 19 15 12 10 10 10 9 7 6 5 3 2 4 6 6
1 3 5 5 3 1 2 6 8 10 13 14 14 14 12 9 9 11 12 12 13 16 19 19 20 23 26 27 26 24 25 25 23 21 21 17 12 11 13 12 9 7 5 4 4 4 5 6 6
0 1 2 2 1 0 1 3 6 9 11 14 13 11 9 8 9 10 12 12 13 15 17 18 18 20 22 22 21 19 20 20 18 19 20 17 12 12 14 13 10 7 6 6 7 8 8 7 6
0 0 1 1 0 0 0 2 5 7 9 12 14 11 9 9 10 11 11 11 11 12 14 14 14 15 17 18 17 15 16 16 15 16 17 15 11 10 11 12 10 8 8 8 9 10 9 8 6
0 0 0 0 0 0 1 3 4 6 7 9 12 12 10 10 11 11 10 9 8 8 9 10 9 10 13 14 14 13 14 15 14 15 17 16 12 8 8 10 10 8 8 9 11 10 8 5 4
0 0 0 0 0 0 2 3 3 4 6 7 10 12 12 11 10 10 8 7 5 5 6 7 6 7 9 10 11 11 12 13 14 15 17 17 15 11 9 10 10 9 10 10 9 8 5 4 3
0 0 0 0 0 0 2 2 1 2 5 7 9 12 12 11 11 10 8 6 4 3 4 5 6 6 7 7 8 9 10 11 12 14 15 15 15 15 13 12 11 11 11 9 5 3 3 3 3
0 0 0 0 0 0 1 1 0 1 4 7 10 11 11 13 13 11 8 5 4 3 3 4 5 6 6 7 8 8 9 9 10 11 13 14 14 13 12 11 10 10 9 7 3 1 1 2 2
0 0 0 0 0 0 0 0 0 0 2 6 9 11 12 13 13 11 9 6 4 3 2 3 4 5 6 6 7 7 7 8 9 10 11 12 10 8 6 6 7 7 8 6 3 1 1 1 1
0 0 0 0 0 0 0 0 0 0 0 3 8 12 14 13 12 12 10 8 5 4 3 3 4 4 4 4 4 5 6 7 8 9 10 9 7 6 4 3 4 6 7 6 3 1 1 2 1
0 0 0 0 0 0 0 0 0 0 0 2 7 13 17 17 16 14 11 9 8 6 5 4 4 4 3 2 2 3 5 7 8 8 8 6 5 5 5 4 4 4 5 5 3 1 1 2 3
0 0 0 0 0 0 0 0 0 1 1 3 7 13 18 20 19 15 12 11 10 8 7 6 6 5 4 2 2 3 5 7 7 7 6 5 5 5 5 5 4 4 4 4 3 2 1 2 2
0 0 0 0 0 0 0 0 1 2 2 4 8 14 19 20 18 15 13 12 9 7 6 6 6 6 5 2 1 2 3 4 5 5 5 4 4 5 5 5 5 5 4 3 3 2 1 1 1
0 0 0 0 0 0 0 0 1 2 3 5 10 16 19 17 14 13 13 12 8 5 5 5 6 6 5 3 2 2 3 3 3 3 3 4 4 4 4 3 4 4 2 1 1 1 0 0 0
0 0 0 0 0 0 0 0 1 2 3 6 13 18 17 13 10 10 11 9 6 4 4 4 5 5 4 3 3 3 3 2 1 2 3 3 3 3 3 2 2 1 0 0 0 0 0 0 1
0 0 0 0 0 0 0 0 1 3 4 8 13 15 14 10 6 6 6 5 3 2 2 2 3 4 3 3 3 3 2 1 1 1 2 3 3 3 2 2 1 0 0 0 0 0 0 0 1
0 0 0 0 0 0 0 1 2 5 7 9 11 13 12 8 4 3 3 3 1 1 1 1 1 2 2 2 2 2 1 0 0 1 2 3 3 3 2 1 1 0 0 0 0 0 0 0 1

GEFSSGP_con_probscp_156.txt.gz
Probability
0 0 0 0 0 0 0 0 1 3 3 3 4 5 8 8 5 3 4 9 14 15 12 10 10 11 9 7 5 3 1 1 0 0 0 0 0 0 0 0 0 0 0 0 0 0 0 0 0
0 0 0 0 0 0 0 1 2 3 3 3 4 5 7 8 6 5 8 14 17 16 13 12 14 13 12 9 7 4 2 2 1 1 0 0 0 0 0 0 0 0 0 0 0 0 0 0 0
0 0 0 0 0 0 0 2 4 5 4 3 5 6 8 9 8 9 14 19 20 17 15 16 18 18 16 14 11 9 6 4 3 1 0 0 0 0 0 0 0 0 0 0 0 0 0 0 0
0 0 0 0 0 0 1 4 7 7 6 4 6 10 13 11 10 12 17 20 19 16 16 18 21 21 20 18 16 13 11 8 5 3 1 0 0 0 0 0 0 0 0 0 0 0 0 0 0
0 0 0 0 1 1 2 4 7 7 5 6 10 14 16 13 12 14 16 18 17 16 16 20 23 23 21 20 18 17 15 12 8 6 4 2 1 1 1 0 0 0 0 0 0 0 0 0 0
0 0 0 1 2 2 3 4 5 5 5 10 16 19 17 15 15 14 13 14 15 17 19 22 25 25 22 20 19 19 18 16 11 8 7 5 3 2 1 0 1 2 1 0 0 0 0 0 0
0 0 0 1 3 4 4 6 6 6 6 12 20 23 21 18 16 14 12 14 18 21 22 22 23 23 22 20 18 19 19 17 13 10 8 6 4 2 1 1 2 3 3 1 0 0 0 0 0
0 0 0 1 3 5 6 8 7 7 9 14 22 27 27 24 18 14 15 19 24 26 24 20 19 19 17 16 15 17 19 18 15 11 8 6 4 1 1 2 3 4 3 2 0 0 0 0 0
0 0 0 1 4 7 9 9 9 12 16 22 31 38 37 31 24 21 23 27 30 29 25 21 19 17 13 11 13 15 17 16 13 11 9 7 5 3 3 4 6 5 3 1 0 0 0 0 0
0 0 0 1 5 9 10 9 11 17 22 30 40 46 42 34 30 30 32 32 31 30 28 26 24 20 15 13 15 16 16 15 11 10 12 11 9 8 8 9 9 7 3 1 1 1 0 0 1
0 0 1 2 6 10 12 12 14 17 22 31 40 42 37 32 33 35 36 35 32 31 30 29 29 28 26 25 21 19 19 17 14 14 16 15 14 13 12 11 10 8 4 3 4 3 2 3 4
1 2 2 3 6 11 15 17 17 18 19 26 32 32 28 28 34 39 39 36 33 30 29 29 31 35 39 38 31 26 26 24 21 21 20 17 15 14 14 13 12 10 8 7 7 6 6 7 7
3 3 4 4 6 10 14 17 17 16 17 22 25 25 26 29 37 42 40 35 30 26 26 29 32 38 42 41 38 34 33 31 28 26 23 18 16 16 17 17 16 15 13 12 11 10 10 9 9
2 3 4 5 7 8 10 11 12 12 14 19 23 26 28 32 37 39 37 31 27 24 25 28 32 36 38 38 37 35 35 36 33 28 23 21 22 24 24 24 23 21 18 16 14 13 11 10 9
1 1 3 5 6 6 7 8 9 9 12 17 23 28 31 31 33 34 34 31 28 26 26 26 29 33 36 36 35 32 31 33 31 24 21 21 25 30 32 30 28 25 21 18 17 15 13 10 8
1 1 1 2 3 3 5 8 9 10 12 18 24 31 34 32 30 30 32 33 33 31 29 27 29 33 36 35 35 32 31 30 26 23 20 20 23 28 29 28 28 27 23 19 19 18 15 11 8
2 1 0 0 0 1 3 8 11 10 12 18 26 33 37 35 31 28 29 33 35 33 31 31 33 35 36 35 34 33 31 28 26 24 22 19 19 21 21 21 22 24 22 18 19 20 17 12 9
2 1 0 1 1 1 4 9 11 11 13 19 26 32 36 37 33 28 27 30 31 31 32 33 35 36 36 35 34 32 27 24 24 23 21 18 16 16 16 16 18 18 17 16 17 18 15 10 7
1 0 0 1 2 2 5 9 12 13 15 19 25 31 35 37 34 29 27 27 26 26 27 29 32 34 35 35 35 31 24 20 19 19 18 16 15 15 15 15 16 16 15 15 15 13 10 7 5
0 0 0 1 2 1 3 7 11 13 14 18 24 30 34 37 35 30 27 25 24 22 21 22 25 29 32 33 32 29 23 18 15 14 13 12 12 13 14 15 16 15 15 14 13 10 6 4 4
0 0 1 1 1 0 1 4 9 12 13 16 22 27 31 34 32 28 25 26 25 22 18 17 19 23 28 30 28 24 21 16 12 11 10 10 11 12 12 13 13 14 13 12 11 9 5 4 4
0 1 2 2 1 0 0 2 8 12 13 16 19 23 27 30 30 27 26 29 28 24 19 17 17 20 25 27 23 19 17 14 11 10 10 11 11 11 9 9 10 11 11 10 9 7 5 5 5
1 1 2 2 1 0 0 2 7 12 14 16 19 22 26 30 32 31 30 33 31 25 20 18 17 18 21 22 20 17 15 13 11 11 11 12 11 9 7 6 7 8 8 8 7 6 6 6 6
0 1 1 1 0 0 0 1 5 10 13 17 22 26 30 34 38 36 33 34 31 24 19 17 16 15 17 17 16 15 14 13 11 11 11 11 10 9 7 6 6 7 6 6 5 5 6 5 5
0 0 0 0 0 0 0 0 3 7 12 19 25 30 35 41 45 41 34 32 29 22 19 17 15 14 14 14 14 14 13 12 11 10 10 10 11 9 8 6 5 5 5 4 3 4 4 3 2
0 0 0 0 0 0 0 1 3 8 13 19 23 29 36 42 44 41 35 30 26 21 19 16 15 14 13 12 13 13 13 12 11 10 9 10 11 9 7 5 4 4 4 4 3 3 3 2 1
0 0 0 0 0 0 1 2 4 9 14 17 20 25 32 35 35 33 31 27 23 19 17 14 14 13 12 10 10 10 11 11 10 10 10 11 9 7 5 4 4 4 4 4 4 3 3 2 2
0 0 0 0 0 0 0 2 5 9 12 15 19 24 29 30 28 26 24 22 19 16 14 12 12 11 9 7 7 7 8 9 10 10 11 10 8 5 4 4 4 4 3 2 2 2 2 2 2
0 0 0 0 0 0 0 2 7 11 12 13 19 25 28 27 24 22 19 16 15 12 10 9 8 6 4 3 3 5 5 5 6 8 9 8 6 4 4 4 4 3 2 1 1 1 1 1 1
0 0 0 0 0 0 0 3 9 13 11 12 19 26 27 25 22 20 17 13 11 9 6 5 5 4 3 2 2 3 3 2 3 4 5 5 4 4 4 4 4 3 2 1 1 0 0 0 0

GEFSSGP_con_probscp_162.txt.gz
Probability
0 0 0 0 0 0 0 0 1 2 1 2 6 11 12 8 4 1 0 1 3 6 8 12 14 12 10 9 7 5 4 2 1 1 1 2 1 1 0 0 0 0 0 0 0 0 0 0 0
0 0 0 0 0 0 0 0 2 3 3 5 11 15 14 9 5 2 1 1 5 7 10 14 17 16 12 9 7 6 5 3 2 2 2 2 1 1 0 0 0 0 0 0 0 0 0 0 0
0 0 0 0 0 0 0 1 4 6 8 12 19 23 17 9 5 3 2 4 8 9 11 16 21 21 15 11 9 7 6 4 3 3 3 2 1 0 0 0 0 0 0 0 0 0 0 0 0
0 0 0 0 0 0 1 3 5 9 14 20 27 28 19 9 5 4 4 8 11 12 13 17 23 24 18 13 10 8 7 6 5 4 4 3 1 0 0 0 0 0 0 0 0 0 0 0 0
0 0 0 0 0 1 2 5 8 12 19 25 30 29 20 11 9 9 8 11 15 16 15 18 23 24 21 16 12 10 9 8 6 5 5 5 3 1 0 0 0 0 0 0 0 0 0 0 0
0 0 0 0 1 2 4 7 10 16 23 26 28 28 21 14 14 13 13 15 18 18 18 20 22 23 23 21 19 16 13 10 7 5 5 5 4 2 1 0 0 0 0 0 0 0 0 0 0
0 0 0 0 2 3 4 6 11 18 25 27 29 29 24 17 16 16 17 18 18 19 20 21 21 21 22 24 24 22 20 16 11 7 6 5 5 3 2 1 1 0 0 0 1 1 1 1 1
0 0 0 1 3 4 4 7 13 20 24 26 27 28 25 22 21 22 22 21 19 19 22 22 21 20 20 22 23 23 21 19 14 9 7 7 5 3 2 2 2 1 1 1 2 2 2 2 2
0 0 0 1 3 4 5 9 17 22 24 24 25 27 28 28 28 29 27 23 18 17 19 21 21 20 19 19 20 19 18 16 13 10 8 8 5 2 1 3 3 2 2 2 2 3 4 4 4
0 0 1 2 4 6 8 12 18 23 24 25 26 29 32 34 34 32 28 23 17 13 14 16 17 18 18 17 18 17 15 14 12 10 8 7 5 2 1 3 3 2 3 2 2 3 4 4 3
1 1 2 4 7 8 11 15 19 23 24 25 29 33 34 34 35 32 26 23 19 14 12 13 14 14 13 13 14 14 13 12 10 9 9 7 5 2 2 2 2 2 2 1 1 2 2 2 2
2 3 4 7 9 10 12 15 20 25 25 25 29 33 31 29 30 29 26 25 24 20 16 15 14 12 11 10 9 9 10 9 7 7 9 7 4 4 3 2 3 3 2 0 0 1 1 1 1
3 3 5 7 8 10 11 13 18 23 24 23 25 27 26 25 24 25 25 27 28 25 21 19 16 14 13 12 10 9 9 8 6 6 6 5 3 4 4 3 4 4 2 1 0 1 1 0 0
4 4 4 5 5 6 9 12 15 17 17 17 19 22 24 24 22 20 22 25 28 29 27 23 18 16 16 14 12 11 9 8 7 6 5 3 2 4 5 5 4 3 2 1 0 0 0 0 0
6 5 4 3 3 2 4 8 12 12 12 15 19 22 24 24 21 19 19 21 25 28 29 26 21 18 17 15 14 12 10 9 8 6 5 3 3 4 5 5 3 2 1 0 0 0 0 0 0
5 4 3 2 2 1 2 4 8 11 14 21 26 25 24 22 20 20 20 21 23 25 26 25 22 20 18 16 15 12 10 8 6 4 3 3 3 3 3 2 1 0 0 0 0 0 0 0 0
2 1 1 1 1 2 3 4 7 12 17 23 27 27 26 24 22 22 23 24 24 23 24 24 23 21 18 14 13 11 7 4 2 1 1 1 1 1 1 1 0 0 0 0 0 0 0 0 0
0 0 0 0 1 2 5 8 11 14 17 21 23 25 26 26 25 23 23 23 22 21 21 21 21 18 14 10 8 6 3 1 0 0 1 1 1 1 0 0 0 0 0 0 0 0 0 0 0
0 0 0 0 1 3 6 10 14 15 17 19 22 24 25 26 24 22 21 19 18 17 15 15 14 12 8 6 4 2 1 0 0 0 1 2 1 0 0 0 0 0 0 0 0 0 0 0 0
0 0 0 0 1 2 6 10 14 16 17 19 20 23 24 24 23 21 18 16 15 14 13 11 10 8 5 4 3 1 0 0 0 0 1 2 2 1 0 0 0 0 0 0 0 0 0 0 0
0 0 0 0 0 1 4 7 10 14 17 18 19 21 23 24 25 23 18 15 13 13 13 11 9 7 5 4 3 1 1 1 1 1 1 2 2 2 1 1 1 0 0 0 0 0 0 0 0
0 0 0 0 0 0 1 2 6 12 17 19 20 21 21 21 23 24 19 14 11 10 11 11 8 7 6 5 3 2 2 2 2 2 2 3 3 3 3 2 2 1 0 0 0 0 0 0 0
0 0 0 0 0 0 0 0 3 9 15 18 20 20 17 16 20 22 18 13 9 7 8 8 8 6 5 4 3 2 1 1 2 3 3 3 3 3 3 3 2 1 0 0 0 0 0 0 0
0 0 0 0 0 0 0 0 1 5 11 15 16 15 15 15 17 18 16 12 8 6 6 6 6 6 5 4 3 1 0 0 1 2 2 2 1 1 2 2 1 0 0 0 0 0 0 0 0
0 0 0 0 0 0 0 0 0 3 9 13 13 13 15 16 15 14 13 11 8 7 5 5 6 6 6 4 2 1 0 0 1 1 1 1 0 0 1 1 0 0 0 0 0 0 0 0 0
0 0 0 0 0 0 0 0 0 2 7 11 12 13 16 16 13 11 10 9 8 7 5 5 5 5 4 3 2 1 1 0 0 0 0 0 0 0 0 0 0 0 0 0 0 0 0 0 0
0 0 0 0 0 0 0 0 0 3 7 10 11 13 14 13 9 8 8 8 8 7 5 4 4 4 3 2 1 1 1 0 0 0 0 0 0 0 0 0 0 0 0 0 0 0 0 0 0
0 0 0 0 0 0 0 0 1 4 8 10 11 12 12 9 7 6 7 7 7 6 4 3 3 3 2 2 1 1 0 0 0 0 0 0 0 0 0 0 0 0 0 0 0 0 0 0 0
0 0 0 0 0 0 0 0 1 4 8 10 10 10 9 7 6 6 6 5 5 4 3 3 3 3 3 2 1 0 0 0 0 0 0 0 0 0 0 0 0 0 0 0 0 0 0 0 0
0 0 0 0 0 0 0 1 2 4 7 9 9 9 8 6 6 6 5 4 4 3 3 3 3 3 3 2 1 0 0 0 0 0 0 0 0 0 0 0 0 0 0 0 0 0 0 0 0

GEFSSGP_con_probscp_168.txt.gz
Probability
0 0 0 0 0 0 0 0 0 0 0 0 1 3 4 2 1 0 0 0 0 1 4 8 10 10 10 10 10 11 10 7 6 6 6 6 6 7 9 9 7 5 3 1 0 0 0 0 0
0 0 0 0 0 0 0 0 0 1 1 1 1 3 5 4 2 1 0 0 1 2 5 9 12 14 13 13 13 13 11 9 7 7 6 6 6 8 10 9 7 5 3 2 0 0 0 0 0
0 0 0 0 0 0 0 0 1 2 3 2 2 3 4 4 2 1 1 2 3 4 6 10 15 17 17 17 16 15 13 11 10 10 9 7 8 10 11 10 6 4 4 2 0 0 0 0 0
0 0 0 0 0 0 1 1 2 4 4 3 2 2 3 3 2 1 2 3 4 5 7 12 16 17 17 17 17 16 15 13 11 11 10 10 11 11 10 9 6 5 4 3 1 1 1 0 0
0 0 0 0 0 1 2 3 4 5 5 3 1 2 3 4 3 3 4 4 5 6 8 13 17 17 16 16 17 17 15 13 12 11 10 11 12 10 9 9 8 7 7 6 5 4 3 2 2
0 0 0 0 1 2 3 3 4 6 5 3 3 5 6 5 5 6 7 7 8 8 10 13 16 17 17 19 20 19 16 13 12 12 12 12 13 12 11 11 11 11 9 8 8 7 6 5 5
0 0 0 0 2 3 2 2 5 8 8 8 8 9 8 7 9 12 13 13 12 11 11 12 13 16 17 19 19 16 14 13 12 12 12 12 12 12 12 11 12 11 9 8 7 6 6 7 7
0 0 0 0 1 2 1 2 5 10 12 13 13 11 11 13 16 18 20 18 15 13 11 11 11 13 15 15 15 13 11 10 11 11 10 10 9 9 9 9 10 9 8 8 6 5 5 6 6
0 0 0 0 0 1 2 3 6 9 12 14 14 14 18 24 24 22 22 21 17 13 12 11 11 11 11 12 13 12 10 8 8 9 9 8 7 7 8 8 8 8 7 7 6 5 5 4 2
0 0 0 0 0 1 3 6 6 6 8 10 13 21 29 31 26 22 20 18 16 14 12 11 10 10 10 11 12 12 11 10 8 8 9 8 7 7 7 7 6 6 6 5 5 5 4 4 3
1 1 1 1 1 2 6 8 7 5 4 6 15 29 36 32 26 21 15 13 14 13 12 11 10 10 10 11 11 12 12 10 9 9 7 6 6 5 5 4 4 5 5 5 5 5 5 6 6
3 3 3 3 3 5 9 10 9 7 5 7 19 32 35 30 24 18 13 10 11 12 12 11 9 9 10 10 10 10 9 9 8 7 6 5 5 4 4 4 4 4 5 5 5 5 5 5 5
3 3 4 4 6 8 11 11 10 9 9 14 24 30 30 26 23 17 12 10 10 12 13 12 10 9 11 11 10 8 7 7 7 6 5 5 4 4 5 5 3 3 3 4 4 4 3 3 2
1 2 3 4 6 8 9 10 10 10 14 20 26 28 26 25 23 19 14 12 12 13 13 12 10 10 11 11 10 8 7 6 6 4 3 2 2 2 3 3 2 1 1 2 3 3 3 3 2
1 1 2 2 2 4 6 7 8 11 17 21 23 25 26 24 22 19 16 14 12 11 12 11 9 9 10 10 9 7 6 6 5 2 1 0 0 0 1 1 0 0 0 1 1 2 3 3 3
0 1 1 1 0 1 3 4 7 12 17 18 19 21 23 22 19 16 15 13 10 8 9 9 9 9 9 9 7 5 4 3 2 1 0 0 0 0 0 0 0 0 0 0 0 1 2 3 3
0 0 0 0 0 0 1 3 6 12 16 16 17 19 19 17 15 12 12 10 8 7 7 7 8 8 8 7 6 4 2 1 1 0 0 0 0 0 0 0 0 0 0 0 0 1 1 2 2
0 0 0 0 0 0 1 3 7 12 15 15 16 18 17 14 12 10 10 10 9 8 6 5 6 7 6 6 5 3 1 0 0 0 0 0 0 0 0 0 0 0 0 0 0 0 0 1 1
0 0 0 0 0 0 1 3 7 11 15 15 14 16 17 14 11 10 11 12 12 9 6 5 5 4 4 4 3 1 0 0 0 0 0 0 0 0 0 0 0 0 0 0 0 0 0 0 0
0 0 0 0 0 0 1 3 6 9 12 14 15 16 16 15 14 14 14 14 12 8 6 6 5 3 2 2 1 0 0 0 0 0 0 0 0 1 1 1 0 0 0 0 0 0 0 0 0
0 0 0 0 0 0 1 2 3 4 7 11 15 15 15 16 17 17 17 15 11 7 5 5 4 2 1 1 1 0 1 1 0 0 0 0 0 1 2 1 0 0 0 0 0 0 0 0 0
0 0 0 0 0 0 1 1 1 1 3 7 10 13 14 16 17 19 18 15 10 6 4 3 2 2 2 2 1 0 1 1 0 0 0 0 0 1 1 1 1 0 0 0 0 0 0 0 0
0 0 0 0 0 0 0 0 0 0 2 4 7 11 14 15 17 18 16 13 9 5 2 1 1 2 2 1 0 0 1 1 0 0 0 0 0 0 1 1 1 0 0 0 0 0 0 0 0
0 0 0 0 0 0 0 0 0 0 2 4 6 9 12 14 16 16 14 12 9 5 1 0 1 1 1 0 0 0 0 0 0 0 0 0 1 1 2 2 1 0 0 0 0 0 0 0 0
0 0 0 0 0 0 0 0 0 0 1 3 5 7 10 12 13 13 13 12 9 5 2 1 0 0 0 0 0 0 0 0 0 0 0 0 1 2 2 2 1 0 0 0 0 0 0 0 0
0 0 0 0 0 0 0 0 0 0 0 2 3 6 8 10 10 10 11 11 8 4 2 2 1 0 0 0 0 0 0 0 0 0 0 0 1 1 1 1 0 0 0 0 0 0 0 0 0
0 0 0 0 0 0 0 0 0 0 1 2 4 6 8 9 8 9 9 8 5 2 2 2 1 1 0 0 0 0 0 0 0 0 0 0 0 0 0 0 0 0 0 0 0 0 0 0 0
0 0 0 0 0 0 0 0 0 0 2 3 5 6 7 7 6 7 8 6 3 2 2 2 2 2 1 0 0 0 0 0 0 0 0 0 0 0 0 0 0 0 0 0 0 0 0 0 0
0 0 0 0 0 0 0 0 0 0 1 3 4 4 4 4 4 4 5 3 2 2 3 3 3 3 1 1 1 0 0 0 0 0 0 0 0 0 0 0 0 0 0 0 0 0 0 0 0
0 0 0 0 0 0 0 0 0 0 0 1 2 2 3 3 3 3 2 1 1 2 3 3 3 3 2 2 2 1 0 0 0 0 0 0 0 0 0 0 0 0 0 0 0 0 0 0 0

GEFSSGP_con_probscp_174.txt.gz
Probability
0 0 0 0 0 0 0 0 0 0 0 0 0 0 0 0 1 1 1 0 1 4 6 6 5 5 5 6 6 6 9 13 14 12 8 5 3 3 3 3 3 3 1 0 0 0 1 1 1
0 0 0 0 0 0 0 0 0 0 0 0 0 0 0 0 0 1 0 1 3 6 8 8 8 8 7 7 7 7 8 11 12 10 7 5 3 3 3 3 3 3 2 1 0 0 0 1 1
0 0 0 0 0 0 0 0 0 0 0 0 0 0 0 0 0 1 1 2 5 8 10 12 12 11 10 9 10 10 10 10 10 9 7 5 4 3 3 3 3 3 2 1 0 0 0 0 1
0 0 0 0 0 0 0 0 0 0 0 0 0 1 1 1 0 1 3 6 9 9 10 13 14 12 11 10 12 13 12 10 10 9 7 6 5 4 4 3 3 4 4 2 1 1 2 1 1
0 0 0 0 0 0 0 0 0 0 0 0 1 2 3 3 2 4 8 11 11 10 10 11 13 12 9 9 12 14 13 12 11 9 8 7 7 7 7 6 5 5 6 5 2 2 5 4 2
0 0 0 0 0 1 1 0 0 0 0 0 1 3 6 8 9 9 12 13 11 9 8 8 10 10 8 9 12 15 15 15 14 11 9 8 9 9 9 8 6 5 5 4 3 3 5 4 3
0 0 0 0 0 2 3 2 0 0 0 1 1 3 8 14 15 15 15 14 11 9 8 7 8 8 8 10 13 15 16 16 16 13 10 9 8 7 7 6 5 4 3 3 3 3 3 2 1
0 0 0 0 0 2 4 3 1 1 1 2 2 3 10 20 21 19 17 15 13 11 9 9 9 8 8 8 10 13 13 13 13 12 9 7 6 5 4 4 4 4 3 3 4 5 4 2 1
0 0 0 0 0 1 4 5 3 2 3 3 5 7 16 25 26 22 20 18 16 13 11 11 11 10 8 6 7 9 9 9 9 9 7 6 5 4 4 5 5 4 3 4 6 8 7 4 2
0 0 0 0 0 1 3 4 3 2 3 4 8 15 23 29 28 25 22 20 18 15 13 11 11 11 10 8 8 8 9 9 8 8 8 8 7 5 4 6 6 5 4 4 6 9 7 4 3
0 0 0 0 0 1 2 3 3 3 3 6 12 20 27 30 29 26 23 21 20 18 14 11 10 10 11 12 13 12 11 10 10 10 10 11 11 9 7 8 9 7 6 6 8 9 6 3 3
0 0 0 1 1 1 3 4 6 8 8 9 14 21 25 28 27 25 23 22 21 19 16 12 11 12 14 17 18 16 12 11 12 12 12 13 16 15 15 15 14 12 11 10 11 10 5 3 4
0 1 2 1 2 3 5 7 10 13 14 16 19 21 23 24 24 24 25 24 22 21 19 16 15 17 20 21 21 19 15 13 13 13 13 15 19 22 22 21 19 17 14 14 13 11 7 6 6
1 2 3 3 2 3 5 8 10 13 17 20 23 23 22 22 24 26 27 26 25 24 23 20 17 19 21 21 19 18 16 16 15 14 14 17 21 24 24 22 19 16 14 14 14 12 10 9 9
1 3 3 3 2 1 3 6 9 12 17 22 24 23 23 23 26 28 28 29 27 25 24 21 17 17 18 18 16 16 17 18 16 15 15 17 19 21 20 18 15 12 11 12 12 11 11 11 10
1 1 1 2 1 0 1 4 8 12 16 21 23 21 21 23 23 24 27 28 26 24 23 20 17 17 18 19 18 18 20 20 17 14 14 15 16 15 15 14 13 11 10 10 10 10 11 11 10
0 0 0 0 0 0 0 2 6 10 15 19 20 18 18 19 19 21 25 27 26 23 23 23 22 22 22 22 22 23 23 21 17 14 13 13 12 10 10 11 11 11 10 9 8 9 10 9 8
0 0 0 0 0 0 1 3 5 7 12 16 17 16 16 16 18 22 27 29 27 25 25 28 29 28 26 24 24 24 22 18 14 11 10 9 7 6 7 9 9 9 9 8 8 9 9 8 8
0 0 0 0 0 0 1 3 5 6 9 13 15 16 16 16 19 25 28 30 30 29 31 32 30 29 26 24 23 24 20 15 10 7 6 5 4 4 5 7 8 8 8 8 9 9 8 8 8
0 0 0 0 1 1 1 3 5 6 7 11 13 16 19 19 20 24 27 30 30 31 34 34 29 25 23 21 21 20 17 12 8 6 5 4 3 3 3 5 7 8 8 8 9 9 8 7 8
0 0 0 0 1 2 2 3 5 6 6 7 11 16 20 21 20 21 25 28 29 31 34 32 28 24 21 19 17 15 13 10 7 6 5 3 2 1 2 4 5 7 8 9 11 11 9 8 9
0 0 0 0 1 1 1 1 4 6 6 7 11 16 19 18 17 19 23 26 28 31 32 30 27 25 21 18 16 13 10 8 7 7 6 4 2 1 2 3 4 5 7 9 12 13 12 11 10
0 0 0 0 0 0 0 0 2 4 4 7 13 17 17 14 14 19 22 24 27 29 29 28 25 23 20 17 16 15 12 9 7 7 7 5 3 3 3 4 5 5 5 8 11 13 13 11 10
0 0 0 0 0 0 0 0 1 2 3 7 14 18 16 13 15 19 22 24 25 25 25 25 23 20 17 15 14 15 14 10 8 7 6 4 3 4 5 6 5 4 4 6 10 11 10 9 9
0 0 0 0 0 0 0 0 1 4 6 9 14 17 15 13 15 19 21 22 23 23 23 22 20 17 14 12 10 11 11 9 6 5 5 4 3 4 5 6 4 3 4 5 8 8 6 6 6
0 0 0 0 0 0 0 0 2 5 8 10 14 15 14 13 15 18 20 20 21 21 21 19 17 14 11 9 7 7 7 6 5 4 4 3 3 3 4 5 4 3 3 3 4 4 4 4 4
0 0 0 0 0 0 0 0 2 4 6 9 11 12 12 13 15 17 18 19 20 19 16 13 12 11 9 7 6 5 4 4 3 3 3 2 2 3 3 3 3 2 1 1 2 1 2 3 3
0 0 0 0 0 0 0 0 1 3 6 8 9 9 11 13 14 15 17 20 19 17 12 8 7 7 7 6 5 3 2 2 2 2 1 1 1 1 2 1 1 1 0 0 0 0 0 1 1
0 0 0 0 0 0 0 0 1 4 6 7 8 9 10 10 11 13 16 20 19 14 9 6 5 4 4 2 2 1 1 1 1 1 0 0 0 0 0 0 0 0 0 0 0 0 0 0 0
0 0 0 0 0 0 0 1 2 5 7 7 9 10 8 8 10 11 14 20 19 12 7 5 4 3 1 0 0 0 0 0 0 0 0 0 0 0 0 0 0 0 0 0 0 0 0 0 0

GEFSSGP_con_probscp_180.txt.gz
Probability
0 0 0 0 0 0 0 0 1 1 1 1 0 1 2 3 5 6 5 7 12 14 12 11 11 11 9 8 6 4 3 2 1 2 4 6 6 5 4 4 3 2 1 0 0 0 0 0 0
0 0 0 0 0 0 0 1 1 1 0 0 1 2 2 3 3 5 7 11 16 16 13 12 13 11 10 10 8 5 4 3 3 3 4 5 6 6 5 4 3 2 1 0 0 0 0 0 0
0 0 0 0 0 0 1 1 1 0 0 0 1 3 4 4 4 6 11 15 17 16 15 17 18 15 12 11 10 8 6 6 5 4 4 5 6 6 6 5 3 2 0 0 0 0 0 0 0
0 0 0 0 0 0 1 2 1 1 1 2 4 6 7 9 10 11 15 18 18 15 17 23 26 22 15 12 11 9 7 7 6 4 4 5 5 5 5 5 4 3 2 1 1 0 1 1 0
0 0 0 0 0 0 2 2 2 2 3 4 8 11 12 13 14 15 18 20 18 18 20 26 31 28 20 15 11 8 6 6 5 5 5 6 5 4 4 4 5 5 4 3 2 2 2 1 1
0 0 0 0 0 0 1 2 2 2 4 6 10 15 15 14 15 17 18 18 19 23 25 26 29 28 25 21 15 10 6 5 6 7 8 8 6 4 4 4 4 4 4 3 3 3 3 2 1
0 0 0 0 0 1 1 1 2 3 5 7 10 15 17 17 18 19 18 17 20 26 28 25 23 24 24 23 19 13 11 10 10 10 10 9 7 5 4 4 3 2 3 3 4 4 5 4 3
0 0 0 0 0 1 3 3 4 6 9 11 14 18 22 24 25 25 23 21 24 29 29 25 22 20 18 18 16 15 16 15 14 12 11 9 6 4 4 5 5 4 4 4 5 6 6 6 5
0 0 0 0 0 2 5 6 7 11 13 16 23 29 32 30 29 30 33 34 35 35 32 28 24 18 13 12 15 16 16 15 14 13 12 9 6 4 4 6 8 7 6 6 6 6 6 6 6
0 0 0 0 1 3 6 8 9 12 14 19 31 41 40 33 30 33 39 43 43 41 37 31 26 20 13 15 20 19 17 16 14 13 13 11 8 6 6 10 12 9 6 6 7 7 7 7 7
0 0 1 1 1 4 7 7 8 11 15 20 32 42 39 31 29 31 36 40 42 44 41 34 29 24 21 23 26 24 22 22 17 15 18 16 13 13 16 18 17 12 9 10 10 10 11 9 8
0 1 2 3 3 4 6 6 7 13 18 23 31 37 33 28 27 29 31 36 41 46 45 39 34 34 35 34 32 30 28 26 22 20 22 23 21 22 25 26 23 19 19 19 18 15 14 11 9
1 2 3 4 4 4 5 5 8 14 20 23 26 29 27 25 27 30 34 41 47 51 51 45 41 43 46 43 38 34 33 31 28 26 26 28 28 27 26 25 24 23 26 27 23 17 14 12 10
2 3 3 4 4 4 4 6 9 14 18 21 22 24 24 27 32 37 44 51 54 56 55 50 45 45 47 45 40 37 36 36 35 34 33 33 32 28 25 22 22 23 24 25 22 16 13 13 12
3 3 3 3 4 3 2 5 9 15 19 22 24 25 29 33 38 43 50 56 59 58 58 53 45 44 47 46 43 39 39 37 39 41 39 36 34 31 27 24 22 21 22 22 18 14 12 12 12
1 2 2 2 2 1 1 4 12 18 21 22 26 31 36 41 43 46 51 57 60 59 58 53 46 45 49 48 46 45 43 41 43 46 44 38 34 32 30 29 25 23 23 21 16 12 10 9 9
0 0 0 1 1 0 1 6 14 19 20 20 24 33 40 44 47 49 52 56 58 58 57 52 46 46 47 47 47 48 47 46 48 49 45 37 31 29 29 29 26 25 24 21 16 13 11 9 9
0 0 0 0 0 0 1 6 13 17 17 18 24 32 40 45 48 50 51 53 54 54 53 50 47 46 45 44 45 47 48 48 49 48 43 35 28 26 25 24 22 20 20 18 15 13 12 12 13
0 0 1 1 0 0 1 5 11 14 14 17 24 32 38 43 46 47 48 50 50 49 48 47 47 47 46 44 44 45 46 45 45 43 38 30 25 23 21 19 17 14 13 13 13 12 12 13 14
1 1 1 1 0 0 1 4 9 11 12 16 23 30 35 39 42 44 45 47 48 48 46 44 46 47 46 44 43 43 41 39 38 37 32 25 21 19 16 15 15 12 10 9 9 10 10 11 12
1 1 1 1 0 0 1 3 7 9 11 15 21 26 31 33 35 39 42 45 47 47 45 43 45 46 45 43 42 39 37 34 33 32 28 23 18 15 14 13 14 13 11 8 8 10 11 12 13
1 0 0 0 0 0 0 2 5 8 11 15 19 24 28 29 30 34 38 41 42 42 41 42 44 44 43 41 39 37 34 32 31 30 27 22 16 13 12 12 12 13 12 10 9 10 12 12 13
0 0 0 0 0 0 0 1 4 7 11 15 18 23 27 29 31 35 39 40 39 38 38 40 42 41 40 38 37 35 33 31 30 28 25 20 14 11 10 10 10 10 10 10 10 10 10 10 10
0 0 0 0 0 0 0 1 4 8 11 15 19 21 25 30 36 40 42 42 40 38 37 38 39 38 37 36 35 34 32 30 28 26 21 16 11 9 8 8 8 8 8 9 9 9 8 8 7
0 0 0 0 0 0 0 2 5 9 13 18 21 23 25 31 38 43 44 42 41 40 39 37 37 37 36 35 32 31 29 28 26 22 17 13 9 8 7 7 8 7 7 7 7 7 7 7 7
0 0 0 0 0 0 0 3 6 10 16 21 23 25 27 30 35 40 41 40 38 38 37 36 35 35 34 32 29 27 25 24 22 18 14 11 8 6 6 6 7 7 6 6 6 6 5 5 7
0 0 0 0 0 0 1 3 6 10 17 22 23 25 28 29 31 34 36 35 33 33 34 34 32 31 30 29 27 24 22 21 17 13 11 9 7 6 5 6 6 6 6 6 6 5 4 3 4
0 0 0 0 0 0 0 2 6 12 18 21 22 24 27 28 29 30 31 30 29 29 30 31 30 29 28 26 24 22 20 18 15 10 8 7 5 5 6 7 6 5 5 5 4 3 2 1 1
0 0 0 0 0 0 0 3 8 15 20 23 23 24 26 28 27 26 27 26 26 26 27 28 28 28 26 24 23 21 18 16 12 9 6 4 3 3 5 6 5 4 3 3 2 1 1 0 0
0 0 0 0 0 0 1 4 11 17 22 26 26 24 25 27 25 24 25 24 23 23 25 25 26 26 24 22 22 20 17 13 10 8 5 2 1 2 4 4 4 4 3 2 1 0 0 0 0

GEFSSGP_con_probscp_186.txt.gz
Probability
0 0 0 0 0 0 0 0 0 1 1 1 3 5 6 6 5 3 1 0 2 5 5 6 9 11 11 11 10 8 4 1 0 0 1 2 4 5 6 6 5 4 3 2 2 1 0 0 0
0 0 0 0 0 0 0 0 1 2 3 3 6 7 7 7 7 5 2 1 4 6 6 7 11 13 12 12 11 9 6 2 1 1 2 3 4 5 6 6 5 4 3 2 1 0 0 0 0
0 0 0 0 0 0 0 0 1 4 7 8 9 11 11 9 8 6 5 5 7 9 10 11 14 14 13 13 12 11 9 5 3 4 3 3 5 6 6 5 5 4 3 1 0 0 0 0 0
0 0 0 0 0 0 0 0 2 6 10 12 14 17 15 11 9 8 8 9 11 12 14 16 18 17 14 13 12 12 11 8 6 5 5 4 5 6 5 4 4 4 3 1 0 0 0 0 0
0 0 0 0 0 0 0 1 5 8 11 14 19 22 19 14 14 14 12 12 14 16 17 20 22 22 18 16 15 15 14 11 7 6 6 5 5 5 5 5 4 3 2 0 0 0 0 0 1
0 0 0 0 0 0 0 1 6 10 12 15 20 22 19 17 19 19 16 14 16 20 20 21 24 25 24 22 21 21 18 14 10 7 6 5 5 5 5 4 3 1 0 0 0 0 0 1 3
0 0 0 0 0 0 0 1 5 9 12 15 18 19 18 18 20 22 21 18 18 20 21 21 22 24 25 24 23 22 21 18 15 11 7 5 4 4 5 4 2 1 1 1 1 1 1 2 2
0 0 0 0 0 1 1 3 7 10 14 16 16 16 18 19 22 26 27 23 19 17 17 18 19 20 20 19 17 18 20 21 20 17 11 6 4 4 4 4 3 3 3 2 1 2 3 3 2
0 0 0 0 1 2 4 7 10 14 18 19 20 21 21 23 28 33 32 27 21 16 13 15 17 17 15 13 14 15 17 19 19 15 10 7 4 3 3 3 3 4 4 3 2 2 3 4 3
0 0 0 1 2 4 8 10 12 14 19 23 28 30 29 29 35 37 33 28 25 18 14 13 15 15 14 14 15 15 15 14 13 10 7 4 3 2 2 1 1 3 3 2 1 1 2 3 3
0 0 1 3 5 7 9 10 12 14 18 23 30 34 34 33 34 34 31 28 26 21 16 14 14 15 15 16 16 14 12 11 8 6 5 3 1 1 1 1 1 2 2 1 1 1 1 1 1
1 1 3 4 5 7 8 9 12 16 18 22 28 31 30 28 27 30 32 31 28 24 20 17 14 14 15 15 13 11 9 8 5 5 4 2 0 0 0 1 3 3 2 0 0 1 1 0 0
1 1 3 4 4 5 6 9 13 17 19 21 24 25 22 21 23 29 34 36 33 28 26 22 18 15 15 13 10 7 6 5 4 4 4 2 0 0 0 1 3 3 2 1 0 0 0 0 0
2 2 3 3 3 4 6 9 13 17 19 20 21 21 21 22 26 32 38 40 36 33 33 30 24 20 19 16 11 8 5 5 5 5 5 4 2 2 2 1 2 2 2 1 0 0 0 0 0
3 3 3 2 1 3 7 9 12 17 20 20 20 22 24 26 31 37 39 38 35 35 37 35 30 27 24 20 16 11 9 8 9 9 9 9 8 6 4 2 1 1 1 0 0 0 0 0 0
3 3 2 1 1 2 6 8 12 18 22 23 24 26 28 31 35 38 37 35 34 36 39 38 34 32 30 26 21 17 15 15 14 14 14 15 13 9 6 4 3 2 1 0 0 0 0 0 0
1 1 1 0 0 1 4 8 13 19 24 26 28 31 33 34 36 37 35 34 34 35 38 38 35 34 32 28 26 23 20 20 19 16 15 15 13 10 7 5 4 3 1 0 0 0 0 0 0
0 0 0 0 0 1 3 7 12 19 24 26 27 31 33 33 33 33 33 34 35 35 35 36 35 33 31 30 29 27 23 21 19 16 15 13 11 9 7 6 5 3 2 1 0 0 0 0 0
0 0 0 0 0 2 4 7 11 15 20 22 23 26 30 31 31 30 31 33 34 34 33 33 32 31 30 30 30 27 23 19 17 16 14 11 10 9 7 5 4 3 3 1 1 0 0 0 0
0 0 0 0 0 1 3 6 9 13 16 17 19 23 30 34 34 31 30 31 32 31 30 29 29 29 29 29 28 25 21 18 17 15 13 11 9 8 7 5 4 3 3 3 2 1 0 0 0
0 0 0 0 0 1 2 4 7 11 13 13 16 22 30 36 37 33 30 29 28 27 26 27 28 29 29 28 28 24 20 18 18 15 13 11 9 8 8 7 5 3 3 3 3 1 0 0 0
0 0 0 0 0 0 1 1 4 9 11 11 13 19 26 32 33 31 29 28 26 25 26 27 28 29 29 28 26 24 21 19 17 15 12 10 8 8 7 7 5 4 3 3 3 2 1 1 0
0 0 0 0 0 0 0 0 2 6 9 11 13 16 21 25 26 27 27 26 26 26 27 27 27 27 28 27 24 23 21 18 15 13 11 8 7 7 7 6 6 4 3 3 3 3 3 2 1
0 0 0 0 0 0 0 0 1 3 6 10 14 17 18 20 22 24 25 25 25 26 26 26 25 25 25 24 23 22 20 17 14 12 9 7 6 6 6 6 6 5 4 3 4 4 4 3 3
0 0 0 0 0 0 0 0 0 3 7 10 15 20 21 20 22 25 25 24 23 24 25 25 24 23 22 22 21 20 17 13 11 10 8 7 6 6 6 6 6 6 4 4 5 6 5 4 3
0 0 0 0 0 0 0 0 1 5 10 13 17 22 25 25 26 27 25 22 21 22 23 24 21 20 19 19 19 17 14 11 9 8 8 7 6 6 6 6 6 6 4 4 6 6 6 4 3
0 0 0 0 0 0 0 0 2 7 12 16 19 23 25 26 25 24 22 19 18 18 20 19 17 16 16 17 16 14 11 9 7 6 6 6 6 6 6 6 6 6 5 5 6 6 5 4 3
0 0 0 0 0 0 0 0 2 6 11 15 19 21 21 21 20 19 18 16 15 15 17 16 13 13 13 14 13 10 8 6 5 4 4 4 4 5 5 6 6 6 6 6 6 5 4 3 3
0 0 0 0 0 0 0 0 1 4 8 12 15 16 16 17 17 16 13 12 13 15 16 14 11 10 11 11 11 8 5 4 4 3 3 3 3 4 5 5 5 6 6 5 5 4 4 3 2
0 0 0 0 0 0 0 0 0 2 6 10 12 13 13 14 16 15 12 11 13 15 16 13 10 8 9 9 9 7 5 4 4 3 3 3 3 4 4 3 4 4 4 5 5 5 4 2 1

GEFSSGP_con_probscp_192.txt.gz
Probability
0 0 0 0 0 0 0 0 0 0 0 0 1 1 1 1 1 0 0 0 0 2 5 10 14 15 14 12 11 11 11 11 12 15 16 16 15 15 14 13 12 11 10 8 5 3 3 3 3
0 0 0 0 0 0 0 0 0 0 0 1 2 2 1 1 1 1 0 0 1 4 6 10 15 17 15 13 12 13 12 11 13 15 17 16 14 14 14 13 11 11 11 10 7 4 3 3 3
0 0 0 0 0 0 0 0 0 1 1 2 2 3 3 3 3 2 2 2 5 7 7 11 17 18 16 14 14 13 13 13 15 17 17 15 13 13 13 12 11 11 13 12 10 6 4 3 3
0 0 0 0 0 0 0 0 0 1 2 3 3 4 6 6 5 4 4 6 8 10 10 13 20 22 19 18 15 14 14 14 16 18 18 15 13 13 13 12 11 12 13 12 10 7 5 3 2
0 0 0 0 0 0 0 0 0 2 4 5 5 7 8 7 7 7 7 9 12 14 13 17 25 28 26 23 19 16 17 18 18 18 17 15 13 12 12 12 13 12 12 10 6 4 3 2 2
0 0 0 0 0 0 0 0 1 3 5 6 6 8 9 8 8 9 10 12 16 18 18 21 28 32 29 26 23 21 23 24 21 18 17 15 12 11 11 12 12 11 10 8 4 2 1 1 1
0 0 0 0 0 0 0 0 1 4 6 6 6 7 9 9 10 12 14 17 21 22 22 24 26 28 27 26 25 25 26 26 23 19 17 14 12 10 10 10 10 8 7 6 4 2 1 0 0
0 0 0 0 0 0 0 0 1 5 7 7 6 6 8 11 15 18 20 21 22 22 24 25 23 21 22 22 22 24 24 23 22 19 17 14 12 11 9 8 7 5 4 4 4 4 2 1 1
0 0 0 0 0 0 0 0 2 6 8 9 8 8 11 17 21 23 22 20 19 20 23 24 20 19 19 19 18 19 19 19 19 17 15 13 12 10 8 6 5 4 3 4 4 5 5 5 4
0 0 1 1 1 0 1 1 3 6 9 10 11 13 20 26 26 22 19 18 17 18 21 21 18 18 19 19 18 18 17 15 14 13 12 11 9 7 5 4 3 3 3 3 4 4 5 6 7
1 1 1 1 1 0 1 2 4 6 7 9 12 18 27 31 27 20 18 18 17 18 19 18 17 17 18 19 18 17 16 14 12 10 10 9 7 5 3 2 2 2 2 2 2 2 3 4 5
2 1 1 0 0 0 1 4 5 5 6 9 15 22 28 29 25 22 20 19 18 17 17 17 16 16 16 17 17 17 16 13 11 10 9 8 6 4 1 1 1 1 1 1 1 1 1 1 1
1 1 0 0 0 1 3 5 6 6 7 10 17 24 27 26 24 23 22 20 18 16 15 15 15 16 17 17 18 18 17 14 12 10 9 7 5 2 0 0 0 0 0 0 0 0 0 0 0
0 0 0 1 2 3 5 6 6 7 9 11 16 21 23 23 24 25 25 22 18 15 14 15 16 17 17 17 17 18 17 15 12 10 8 6 3 1 0 0 0 0 0 1 0 0 0 0 0
0 0 0 1 3 5 6 6 7 9 11 12 15 17 18 19 22 25 26 25 20 15 14 14 15 16 17 16 15 15 15 14 11 9 7 5 3 1 0 0 0 0 0 0 0 0 0 0 0
0 0 0 1 2 4 5 6 7 10 12 13 14 14 14 15 17 21 25 25 22 18 15 14 15 16 17 16 15 14 14 13 10 7 5 4 3 1 0 0 0 0 0 0 0 0 0 0 0
0 0 0 0 1 3 6 6 7 10 12 13 13 14 13 13 15 19 22 23 23 22 20 18 17 18 19 18 16 15 13 12 11 8 5 4 3 1 1 1 1 0 0 0 0 0 0 0 0
0 0 0 0 1 3 7 8 8 9 11 13 14 15 15 15 17 19 20 21 23 24 23 21 20 19 19 19 18 17 14 12 12 10 7 5 4 3 3 2 1 0 0 0 0 0 0 0 0
0 0 0 0 1 3 5 8 8 8 11 13 15 16 16 17 18 18 19 21 22 22 22 20 20 20 21 21 21 20 16 12 11 10 10 9 8 6 5 2 1 1 1 1 0 0 0 0 0
0 0 0 1 2 3 3 5 7 8 10 12 14 15 15 16 17 18 19 20 20 20 20 20 21 22 22 22 23 21 16 11 11 11 11 11 9 7 5 4 3 2 2 2 1 0 1 1 0
0 0 0 1 2 2 1 2 5 7 7 9 10 11 12 15 17 17 18 18 17 18 21 22 22 22 20 21 22 20 15 12 11 11 11 10 9 7 5 4 4 3 3 3 2 2 2 2 1
0 0 0 0 1 1 0 1 3 3 4 6 7 8 11 14 15 16 16 16 15 16 19 21 21 20 18 18 20 20 17 14 12 11 10 9 8 6 4 4 3 3 3 3 3 3 4 3 2
0 0 0 0 0 0 0 0 1 1 1 3 5 8 12 13 13 15 16 16 14 14 16 19 20 18 16 17 19 19 17 14 11 9 8 8 7 6 4 3 3 3 3 3 3 4 3 2 2
0 0 0 0 0 0 0 0 0 0 0 1 3 8 12 13 13 14 16 16 14 13 15 17 17 16 15 16 17 16 14 12 9 7 7 7 7 6 5 4 4 4 4 4 4 5 4 2 2
0 0 0 0 0 0 0 0 0 0 0 1 2 7 11 13 14 16 16 16 14 14 14 14 15 14 14 14 14 13 11 10 8 7 7 8 7 6 6 5 5 5 6 6 6 6 6 4 3
0 0 0 0 0 0 0 0 0 0 1 2 3 5 10 13 15 17 16 15 14 13 12 12 12 13 13 12 11 9 9 9 8 6 6 7 7 6 6 6 6 6 6 6 6 6 6 6 5
0 0 0 0 0 0 0 0 0 0 2 4 4 5 8 13 15 16 15 14 12 10 9 8 8 9 11 11 9 8 8 7 6 5 5 6 6 6 6 6 6 6 6 6 6 6 6 6 6
0 0 0 0 0 0 0 0 0 0 2 4 5 4 6 10 12 13 13 12 10 8 6 5 5 6 9 9 8 7 6 4 3 4 3 3 4 5 6 6 6 6 6 6 6 6 6 6 6
0 0 0 0 0 0 0 0 0 0 0 2 4 3 3 6 8 8 8 9 8 6 4 4 5 5 6 6 6 5 4 2 1 1 1 1 2 3 4 4 4 5 6 6 6 6 6 6 6
0 0 0 0 0 0 0 0 0 0 0 1 3 3 2 4 5 4 4 5 6 5 5 5 5 4 4 4 4 3 3 2 1 0 0 0 0 1 3 3 4 4 5 6 6 6 6 6 6

GEFSSGP_con_probscp_198.txt.gz
Probability
0 0 0 0 0 0 0 0 0 0 0 0 0 0 0 0 0 0 0 0 2 5 9 13 16 14 12 12 13 12 10 10 10 10 10 12 13 11 9 8 6 5 5 6 5 3 2 3 4
0 0 0 0 0 0 0 0 0 0 0 0 0 0 0 0 0 0 0 1 4 8 11 16 17 15 14 14 13 12 10 10 11 11 12 14 14 13 11 9 8 6 5 5 5 3 1 2 3
0 0 0 0 0 0 0 0 0 0 0 0 0 0 0 0 0 0 0 2 7 11 14 18 19 18 18 16 15 14 14 14 16 15 15 16 15 14 13 12 9 7 6 5 4 3 2 1 2
0 0 0 0 0 0 0 0 0 0 0 0 0 0 0 1 1 1 1 4 9 12 14 18 21 21 21 20 19 20 21 21 21 20 18 15 15 15 14 13 9 7 6 6 4 3 2 1 1
0 0 0 0 0 0 0 0 0 0 0 0 0 0 2 3 3 2 2 7 10 11 13 18 22 22 21 23 24 25 26 25 23 20 18 16 16 16 14 11 8 7 7 6 4 3 2 2 2
0 0 0 0 0 0 0 0 0 0 0 0 0 1 4 6 7 6 6 10 13 12 13 18 21 19 19 20 23 23 23 23 22 20 18 18 17 16 13 10 8 8 7 6 4 3 4 4 5
0 0 0 0 0 0 0 0 0 0 0 0 0 1 6 10 12 13 13 15 16 15 15 17 17 15 14 14 16 18 18 20 21 20 19 18 18 16 14 12 10 9 8 7 6 6 5 5 7
0 0 0 0 0 0 0 0 0 0 0 0 1 3 9 15 18 18 19 19 19 19 18 17 16 14 12 11 13 16 16 17 18 20 19 17 16 16 15 14 12 10 9 9 9 8 6 5 6
0 0 0 0 0 1 0 0 0 0 1 3 5 7 13 20 22 22 23 24 25 24 22 21 19 18 15 14 16 18 17 17 17 17 17 15 13 13 14 13 13 11 9 8 8 7 6 4 3
0 0 0 0 0 0 0 0 0 1 2 5 8 11 16 23 26 27 29 31 30 28 25 23 23 21 20 20 21 20 19 19 16 14 14 12 11 12 12 13 13 12 8 6 6 5 4 3 1
0 0 1 1 1 0 0 0 0 1 3 6 8 11 18 25 29 31 34 35 34 31 27 25 23 23 23 24 24 23 22 21 17 15 12 11 12 12 12 13 13 12 10 8 7 5 3 2 2
0 0 1 2 2 1 1 1 1 3 5 7 8 10 17 23 27 29 31 32 33 33 30 26 24 25 26 27 26 25 25 23 20 18 14 11 11 11 12 14 15 14 13 12 12 10 7 5 5
0 0 1 2 2 2 2 3 3 5 8 9 8 10 14 20 24 26 26 29 33 32 29 26 25 26 27 27 27 26 25 24 23 21 17 12 11 11 12 15 17 16 16 17 16 14 12 10 8
0 0 0 1 1 2 3 3 4 6 9 9 9 11 15 19 24 24 24 29 33 32 27 24 25 26 28 29 28 27 27 27 25 23 20 15 14 14 15 18 19 18 18 19 18 16 16 13 11
0 0 0 0 1 2 3 2 3 6 9 9 10 13 17 20 22 22 23 28 32 30 26 22 22 25 29 32 32 30 29 29 27 25 24 22 21 21 23 23 22 20 19 20 19 17 15 13 11
0 0 0 0 1 2 2 1 2 6 9 9 10 13 17 19 18 18 21 25 28 27 25 22 20 24 30 33 34 32 31 30 29 27 27 27 28 28 29 27 23 22 21 20 18 15 13 11 10
0 0 0 0 0 1 1 1 2 6 9 9 9 11 14 15 15 17 21 24 25 23 25 25 23 26 31 34 34 34 32 30 28 27 27 28 30 30 30 28 24 23 21 18 14 12 11 10 9
0 0 0 0 0 0 0 1 2 5 8 8 8 9 11 14 16 19 21 23 24 25 28 29 28 29 32 33 34 33 30 26 25 26 26 27 28 29 29 28 26 24 20 14 10 8 8 8 7
0 0 0 0 0 0 0 0 1 4 7 7 7 9 13 17 20 22 21 20 23 28 31 31 31 31 32 32 33 31 27 24 23 24 24 25 26 26 25 25 26 23 18 13 9 7 5 4 4
0 0 0 0 0 0 0 0 0 2 5 6 7 11 15 20 23 25 24 21 22 27 31 33 33 33 32 33 33 30 26 24 24 25 25 25 25 24 23 23 23 21 18 15 12 8 4 1 1
0 0 0 0 0 0 0 0 0 1 4 6 8 11 15 19 23 26 26 25 24 25 29 33 35 34 33 35 34 30 27 25 25 26 26 24 24 23 22 21 20 19 17 15 13 9 5 2 1
0 0 0 0 0 0 0 0 0 1 3 5 8 11 14 18 23 25 27 26 25 24 26 31 35 36 34 34 33 29 27 25 25 25 22 20 20 19 18 18 18 18 16 14 12 9 7 5 3
0 0 0 0 0 0 0 0 0 0 1 4 8 12 15 20 25 26 26 25 23 21 23 28 33 35 34 33 30 27 26 25 24 21 17 15 15 15 14 16 17 16 14 12 11 9 8 6 5
0 0 0 0 0 0 0 0 1 1 1 3 6 10 14 19 23 24 25 24 22 20 22 25 29 32 33 31 28 26 26 25 24 20 16 14 13 13 13 13 14 14 13 11 10 9 7 7 6
0 0 0 0 0 0 1 1 2 2 2 4 4 6 10 14 18 20 22 24 23 23 24 26 27 28 30 30 28 26 25 23 22 19 17 15 14 14 13 12 13 13 12 10 8 7 7 6 6
0 0 0 0 0 0 1 2 2 2 3 3 3 4 7 11 16 19 22 25 25 25 25 26 26 26 27 27 25 24 23 20 19 18 16 15 15 15 13 11 11 12 11 9 8 7 7 7 7
0 0 0 0 0 0 0 1 1 2 2 1 2 3 6 11 16 21 25 28 26 23 23 24 25 25 23 22 22 22 21 19 18 16 14 14 14 13 11 9 9 9 9 8 8 8 7 7 7
0 0 0 0 0 0 0 0 1 1 1 0 2 4 8 12 15 20 25 25 22 19 19 19 20 21 19 18 18 18 18 18 17 16 15 14 13 10 8 7 6 6 6 6 7 7 6 6 6
0 1 1 1 1 1 0 0 0 0 0 1 2 5 11 14 14 17 21 20 17 15 15 15 16 15 14 15 15 14 14 13 14 15 15 14 11 7 5 5 4 3 3 5 6 6 6 4 4
0 1 2 2 2 2 1 0 0 0 0 1 2 5 11 14 14 15 18 17 15 14 14 14 14 12 11 12 13 12 10 9 11 13 14 13 9 5 3 2 2 1 1 4 6 6 5 3 3

GEFSSGP_con_probscp_204.txt.gz
Probability
0 0 0 0 0 0 0 0 0 0 0 0 0 0 0 0 1 2 5 14 27 34 34 35 35 31 25 16 9 5 4 3 1 2 3 4 4 4 4 4 4 3 3 2 1 0 1 0 0
0 0 0 0 0 0 0 0 0 0 0 0 0 0 0 1 1 3 7 17 29 35 35 36 35 31 26 20 13 8 6 4 3 3 4 4 4 5 5 5 4 4 3 3 1 1 1 0 0
0 0 0 0 0 0 0 0 0 0 0 0 0 0 2 3 4 6 11 21 33 37 36 38 37 33 29 26 20 14 9 7 6 5 5 5 6 6 6 6 6 5 4 3 3 2 2 1 1
0 0 0 0 0 0 0 0 0 0 0 0 1 2 5 8 10 11 16 25 35 39 39 40 40 37 34 31 26 21 16 12 10 8 8 9 9 8 8 8 8 7 5 4 4 4 3 3 2
0 0 0 0 0 0 1 1 0 0 0 0 1 4 10 15 16 17 20 28 35 39 42 43 43 41 38 34 30 27 24 19 14 11 10 11 11 10 9 9 9 9 8 6 5 5 5 4 3
0 0 0 0 0 0 1 1 0 0 0 0 1 5 13 19 20 19 21 27 34 40 45 45 43 41 38 34 31 29 26 22 17 14 13 12 12 11 11 11 11 12 12 10 8 6 5 4 3
0 0 0 0 0 0 1 1 0 0 0 1 2 6 15 20 20 20 22 25 33 41 46 44 38 36 33 32 31 29 26 22 19 17 15 14 14 13 13 14 16 17 15 13 10 7 6 5 4
0 0 0 0 0 1 1 1 1 1 2 2 4 10 20 24 22 22 24 27 34 43 47 42 35 31 30 29 29 29 27 23 22 20 18 16 15 14 13 14 17 19 18 15 11 8 8 7 6
0 0 0 0 0 1 2 2 1 2 2 5 11 20 27 28 24 24 27 31 36 44 46 40 33 30 27 26 28 28 26 24 24 23 20 17 15 13 11 11 16 19 18 16 13 11 10 8 7
0 0 0 0 0 0 1 1 1 1 2 8 18 29 31 29 26 27 32 36 41 48 47 40 35 31 25 25 30 30 26 24 23 21 20 19 16 13 11 13 17 19 20 18 15 12 10 8 7
0 0 0 0 0 0 0 0 1 3 5 12 24 31 32 29 28 32 37 43 49 53 51 44 38 33 28 30 34 31 26 23 21 20 21 21 16 13 14 18 20 21 20 18 16 14 12 10 9
0 0 0 0 1 1 1 1 2 6 11 19 26 29 29 28 29 36 43 49 53 55 52 47 43 41 41 41 38 32 27 25 23 23 24 23 19 16 19 24 26 23 19 17 17 16 14 12 12
0 0 0 0 1 1 2 3 4 9 15 22 26 25 24 25 30 39 48 54 56 57 54 50 49 51 52 49 42 33 31 30 28 27 29 28 26 26 28 30 30 25 20 18 18 17 16 14 13
0 0 0 0 0 1 2 3 4 8 14 21 22 20 21 26 32 41 51 59 61 61 59 56 54 55 54 48 41 35 34 35 33 34 36 36 36 38 38 36 32 27 23 22 22 21 18 15 13
0 0 0 0 0 1 1 1 3 7 11 17 19 19 23 29 34 42 52 61 65 63 61 56 51 50 49 44 39 36 36 37 38 39 42 43 44 44 42 39 34 28 25 25 26 25 21 16 13
0 0 0 0 0 0 0 1 4 7 10 14 17 22 29 33 36 41 51 60 63 61 57 51 43 43 46 44 41 38 37 37 39 42 45 47 47 44 41 39 35 30 26 25 25 25 22 16 11
0 0 0 0 0 0 0 2 6 8 10 13 17 24 32 33 33 38 48 57 59 57 52 44 38 39 43 44 42 40 37 37 38 41 44 46 45 42 40 38 36 32 28 26 25 25 24 18 12
0 0 0 0 0 0 0 2 5 7 9 12 18 25 29 30 32 38 48 54 55 54 47 39 34 35 39 42 42 40 37 35 34 37 41 43 43 41 40 37 35 33 32 30 27 26 23 19 15
0 0 0 0 0 0 1 2 4 5 9 11 16 23 27 29 35 44 49 51 52 50 44 39 35 34 37 39 40 38 37 34 32 33 37 40 42 42 40 36 34 34 33 30 27 24 20 17 14
0 0 0 0 0 0 1 3 4 6 9 11 14 24 30 32 38 47 50 50 51 48 43 41 39 37 36 37 37 37 37 36 33 33 35 37 39 40 38 37 34 32 30 28 25 23 20 15 10
0 0 0 0 0 0 1 3 6 8 10 11 15 25 35 36 39 44 48 49 50 47 44 43 42 39 36 35 35 36 36 37 35 35 35 36 36 36 35 34 32 30 28 27 26 25 23 16 9
0 0 0 0 0 0 1 3 7 9 10 12 16 25 34 38 40 43 48 49 48 45 43 43 43 40 37 36 35 35 36 37 35 35 35 35 35 33 32 30 29 28 27 27 26 26 25 19 12
0 0 0 0 0 0 1 3 7 9 10 12 17 23 30 36 40 43 47 49 46 42 42 42 42 40 38 37 35 34 36 36 35 34 34 33 32 30 28 27 27 28 28 27 26 26 25 19 14
0 0 0 0 0 0 0 2 6 8 9 11 14 18 24 30 36 40 44 48 46 41 40 40 39 40 39 38 36 35 35 35 34 34 33 31 29 27 24 23 25 26 26 26 25 24 22 18 13
0 0 0 0 0 0 0 3 5 7 7 7 9 15 21 24 28 33 38 43 45 42 40 38 38 39 39 39 37 36 35 33 32 32 31 28 25 23 21 22 24 25 24 23 22 21 19 16 14
0 0 0 0 0 0 1 3 5 5 5 4 7 14 18 17 21 28 34 39 42 41 39 38 38 38 38 37 37 36 34 31 29 27 25 24 21 19 19 21 24 24 22 19 19 18 17 15 14
0 0 0 0 0 0 1 2 3 4 4 3 6 12 14 15 20 28 33 36 37 37 38 38 36 35 34 34 33 33 31 28 25 23 22 21 20 18 18 20 22 21 18 16 16 16 14 12 11
0 0 0 0 0 0 0 1 2 3 4 3 4 9 13 17 23 28 31 33 33 33 35 35 33 30 29 29 28 28 27 25 22 21 21 21 19 18 18 18 19 18 15 14 14 12 10 8 8
0 0 0 0 0 1 1 1 3 4 5 4 4 6 11 17 23 25 27 29 30 31 33 32 29 26 24 23 23 22 21 21 21 20 19 19 18 17 16 17 18 17 13 11 10 8 6 4 4
0 0 0 0 1 2 2 2 4 6 6 6 4 6 10 16 21 23 24 27 29 30 31 30 27 25 21 19 19 19 19 19 19 19 17 16 16 15 15 16 17 15 11 8 7 6 5 3 2

GEFSSGP_con_probscp_210.txt.gz
Probability
0 0 0 0 0 0 0 0 0 0 0 0 0 1 3 6 7 7 9 12 13 15 20 27 33 35 32 28 24 21 15 11 9 7 8 10 9 9 9 12 14 14 11 7 4 2 1 1 0
0 0 0 0 0 0 0 0 0 0 0 0 1 3 6 9 12 12 12 14 16 17 20 27 36 39 36 30 27 24 19 13 9 7 7 8 9 10 11 12 13 13 11 8 5 3 2 2 1
0 0 0 0 0 0 0 0 0 1 1 1 3 6 8 12 15 15 16 19 21 21 21 28 39 44 41 34 30 28 23 16 12 10 8 9 11 12 13 12 12 12 11 9 6 4 3 2 2
0 0 0 0 0 0 0 0 1 1 1 3 7 10 12 13 15 20 24 26 26 24 23 32 42 46 42 37 33 31 27 21 17 14 13 13 14 14 14 13 11 10 10 9 7 5 3 2 2
0 0 0 0 0 0 0 0 1 1 2 5 11 16 17 16 19 26 29 29 28 26 27 36 44 46 42 38 35 33 30 26 22 19 17 17 16 15 15 13 11 10 9 8 6 5 3 2 2
0 0 0 0 0 0 0 0 1 1 3 7 13 19 20 19 23 27 28 28 30 31 32 37 42 42 40 38 36 35 32 28 24 22 20 19 17 15 15 14 12 10 9 7 5 4 4 3 3
0 0 0 0 0 0 0 0 0 2 4 8 15 22 23 22 23 26 27 28 32 35 35 34 34 33 33 34 35 34 32 29 25 23 20 18 15 13 12 12 11 10 9 7 4 3 3 3 2
0 0 0 0 0 0 0 0 0 3 7 11 17 23 26 25 25 30 34 33 34 36 34 29 26 26 27 29 30 30 30 27 24 20 17 14 11 9 8 8 8 8 7 7 5 4 2 1 1
0 0 0 0 0 0 0 0 1 7 14 18 20 24 28 28 30 38 43 40 37 36 32 26 24 24 25 26 25 25 24 23 20 17 14 12 10 8 6 6 5 4 4 6 7 5 3 1 0
0 0 0 0 0 0 0 0 3 10 18 23 25 28 30 30 33 42 47 45 40 36 30 26 25 27 28 27 25 22 21 19 17 14 12 12 10 9 7 6 4 3 4 6 6 5 4 2 1
0 0 0 0 0 0 1 2 5 11 18 23 27 31 32 29 31 38 45 46 43 37 30 26 28 30 30 29 26 24 20 17 15 13 12 11 10 9 8 6 5 4 5 5 4 4 4 3 2
0 0 0 0 0 1 2 3 6 11 18 24 29 33 31 28 29 34 42 46 44 38 32 29 30 32 31 28 24 22 19 16 13 12 11 11 10 8 7 6 5 5 7 6 4 3 3 2 2
0 0 0 0 1 1 2 3 6 13 22 30 34 34 32 29 31 36 41 45 44 40 35 33 31 30 27 23 20 19 17 14 12 11 11 10 9 7 6 5 5 6 7 7 5 2 2 2 2
0 0 0 0 0 1 2 3 7 16 27 34 36 36 34 32 34 39 42 43 43 40 37 33 29 25 21 17 17 17 16 13 11 11 12 11 9 7 6 7 7 8 8 7 4 2 2 3 3
0 0 0 0 0 1 3 5 8 16 27 35 37 39 39 37 38 41 42 40 40 40 35 31 27 23 18 16 16 16 15 13 11 12 13 13 10 8 8 10 11 11 9 7 4 3 3 3 3
0 0 0 0 0 1 3 6 9 16 26 34 37 40 41 39 38 40 40 38 39 39 34 30 28 24 21 19 17 16 15 14 12 11 13 13 12 10 11 12 12 13 11 8 5 3 3 2 2
0 0 0 0 0 0 2 5 9 15 23 29 33 36 37 37 37 37 36 36 37 35 32 30 28 26 25 23 20 18 18 16 13 10 10 12 14 15 15 13 12 13 12 9 6 3 2 2 1
0 0 0 0 0 0 2 5 10 15 19 23 27 31 34 35 35 35 33 33 33 30 29 29 27 26 25 23 22 21 20 18 15 12 12 13 17 20 20 17 14 14 14 11 6 3 1 1 1
0 0 0 0 0 1 3 6 9 12 16 20 25 30 32 33 34 35 33 30 29 26 25 25 25 26 25 23 22 22 21 20 18 17 16 17 20 24 24 22 19 17 16 12 7 3 1 0 0
0 0 0 0 1 2 5 7 8 9 13 17 22 27 29 28 30 33 32 29 27 25 23 22 23 25 25 24 23 23 22 21 19 18 17 17 20 23 24 22 20 17 15 12 8 5 3 1 1
0 0 0 0 1 3 5 6 6 6 9 14 18 22 25 24 25 28 29 28 26 24 22 20 21 24 25 24 23 23 22 22 20 18 16 15 17 20 20 18 16 14 13 11 9 7 6 4 2
0 0 0 0 0 1 2 4 4 6 8 11 14 16 20 21 22 24 25 25 24 23 22 20 20 22 23 23 22 21 21 22 21 18 14 12 14 16 16 14 13 12 12 11 10 9 8 6 4
0 0 0 0 0 0 0 1 2 5 7 9 10 11 15 18 20 21 22 21 21 22 23 21 21 22 23 22 20 19 20 20 19 16 13 11 11 13 13 11 10 10 9 9 9 9 9 7 6
0 0 0 0 0 0 0 0 1 3 4 5 7 7 10 14 18 19 19 17 18 20 21 19 19 21 23 22 19 18 18 18 16 14 12 11 10 11 10 9 7 6 7 7 8 8 9 8 7
0 0 0 0 0 0 0 0 0 1 2 3 4 4 6 10 15 18 19 17 15 16 17 17 17 19 20 20 17 15 16 16 15 13 12 11 10 9 8 6 4 4 5 6 6 6 7 7 6
0 0 0 0 0 0 0 0 0 1 2 2 2 4 4 6 10 16 19 18 15 14 16 15 14 15 17 16 15 14 14 14 14 12 11 10 9 8 7 6 3 2 4 5 5 4 5 5 5
0 0 0 0 0 0 0 0 0 1 2 1 2 4 4 4 7 12 17 18 16 14 14 13 12 13 14 14 13 13 12 11 11 11 9 8 7 7 6 6 4 3 4 5 4 3 3 4 4
0 0 0 0 0 0 0 0 0 0 0 1 2 4 5 6 7 10 13 15 14 11 10 9 10 11 12 13 13 12 10 9 8 8 8 7 7 6 6 5 4 4 4 4 4 3 3 4 5
0 0 0 0 0 0 0 0 0 0 0 0 2 4 6 6 6 7 9 11 10 7 5 6 8 9 10 11 11 10 9 7 6 6 6 6 6 6 6 5 5 4 4 3 3 3 4 5 5
0 0 0 0 0 0 0 0 0 0 0 1 2 4 5 5 5 4 6 8 8 5 3 4 6 8 9 9 9 8 8 7 6 6 6 6 6 6 6 4 4 4 4 3 3 3 4 5 4

GEFSSGP_con_probscp_216.txt.gz
Probability
0 0 0 0 0 0 0 0 0 0 0 0 0 0 0 0 1 1 1 1 7 17 25 29 28 25 26 30 33 36 39 42 40 33 27 25 26 25 24 20 16 15 12 9 7 5 4 4 5
0 0 0 0 0 0 0 0 0 0 0 0 0 0 0 2 3 3 2 4 11 20 27 31 32 29 28 30 34 37 39 41 41 36 31 28 26 25 23 19 16 15 13 10 7 4 3 4 4
0 0 0 0 0 0 0 0 0 0 0 0 1 1 1 4 7 7 5 8 15 22 27 33 37 36 34 34 35 37 38 39 39 39 34 28 24 22 21 19 16 13 12 10 6 4 3 3 2
0 0 0 0 0 0 0 0 0 0 0 1 3 4 4 7 11 12 11 13 17 21 27 35 41 41 39 38 35 35 36 36 36 36 34 28 23 21 21 20 17 13 9 6 5 5 4 2 1
0 0 0 0 0 0 0 0 1 0 1 3 5 7 6 9 14 17 17 18 20 23 28 37 43 43 42 39 34 32 32 32 32 32 32 29 24 23 23 20 16 12 9 5 5 6 5 3 2
0 0 0 0 0 0 0 0 0 0 1 3 6 8 7 9 15 19 22 23 23 25 28 36 42 42 41 37 33 30 30 30 29 29 30 28 24 22 20 17 14 11 10 7 5 6 7 6 4
0 0 0 0 0 0 0 0 0 0 1 2 6 7 7 10 16 23 26 25 25 24 26 32 36 38 37 34 32 31 29 29 29 29 28 24 20 17 15 13 12 11 9 8 5 5 9 8 6
0 0 0 0 0 0 0 0 1 2 2 4 6 6 7 13 23 29 29 27 25 24 26 29 33 34 33 32 32 30 29 28 28 27 25 21 16 12 10 10 10 9 8 7 5 5 7 8 7
0 0 0 0 0 0 0 0 1 3 5 7 8 8 11 21 33 37 34 29 24 24 26 30 31 31 32 32 31 29 28 27 25 23 21 17 13 9 8 8 8 6 6 7 6 4 4 5 5
0 0 0 0 0 0 0 0 1 5 8 9 10 13 19 30 39 41 37 31 25 23 26 29 30 28 29 30 29 27 26 24 21 20 17 14 10 7 6 6 6 5 5 6 6 5 3 4 4
0 0 0 0 0 0 0 0 1 5 7 8 11 17 28 36 38 37 34 30 26 22 23 27 28 26 26 26 26 25 25 22 19 18 15 11 7 4 5 6 6 6 6 6 5 5 4 5 5
0 0 0 0 0 0 0 0 1 2 4 7 11 19 30 35 33 31 29 27 25 22 21 25 27 26 24 23 23 24 25 23 19 17 14 11 7 4 4 5 6 7 7 6 6 6 6 6 5
0 0 0 0 0 0 0 0 0 2 5 10 14 19 26 29 27 26 25 25 24 24 24 25 26 25 22 20 19 22 23 22 19 16 15 12 9 6 4 5 6 7 8 7 6 6 6 6 5
0 0 0 0 0 0 0 0 1 5 10 14 16 19 21 21 21 22 23 23 24 26 27 27 26 24 22 19 17 17 18 18 16 15 13 12 10 7 5 5 6 7 7 6 5 5 5 5 5
1 1 0 0 0 0 0 1 3 7 13 16 17 18 19 18 18 20 21 22 23 25 27 27 25 23 22 21 19 17 15 15 14 13 12 10 10 8 6 6 7 6 6 6 5 4 4 4 4
0 0 0 0 0 0 0 2 5 9 12 13 15 18 19 19 17 17 18 18 18 20 23 24 23 22 21 20 18 17 15 13 13 13 12 11 11 9 8 7 7 6 6 6 6 4 3 4 4
0 0 0 0 0 0 1 2 5 7 7 8 12 16 18 17 14 12 12 13 13 13 17 19 18 18 18 16 14 13 12 11 10 10 10 11 12 11 9 8 7 6 6 7 6 5 3 3 4
0 0 0 0 0 1 2 3 3 3 3 5 9 11 12 12 10 7 7 9 8 7 11 14 14 13 13 13 11 9 8 7 7 7 7 9 11 11 10 8 6 5 6 8 8 7 5 4 4
0 0 0 0 0 1 2 3 2 1 2 4 7 8 8 8 7 6 6 7 6 5 8 12 13 12 12 14 13 10 8 8 8 7 7 7 9 10 9 8 7 7 8 10 10 9 7 7 7
0 0 0 0 0 1 2 2 1 1 2 4 6 6 5 5 6 7 7 7 6 6 8 11 13 14 15 16 17 15 13 11 9 9 9 8 9 10 10 9 10 11 12 12 10 8 7 7 7
0 0 0 0 0 1 1 1 1 2 3 4 4 4 4 5 6 8 9 8 7 7 9 10 12 13 14 16 18 18 16 13 11 11 11 11 11 11 10 10 12 13 15 13 10 6 5 5 5
0 0 0 0 0 0 0 0 0 1 3 4 4 5 5 6 7 9 10 9 8 9 9 10 10 10 11 14 17 17 15 13 13 12 12 11 10 9 9 8 9 11 13 13 9 5 4 3 3
0 0 0 0 0 0 0 0 0 1 2 3 4 6 6 7 9 10 11 10 10 10 10 10 10 10 10 11 13 14 13 11 11 12 12 10 8 6 6 7 7 8 10 10 9 6 4 3 3
0 0 0 0 0 0 0 0 0 0 1 2 4 6 6 7 9 11 11 10 9 9 9 10 10 9 8 8 9 11 11 10 11 11 10 7 6 5 6 6 6 7 7 8 8 7 6 4 3
0 0 0 0 0 0 0 0 0 0 0 1 3 5 6 6 7 9 10 8 6 5 7 9 10 8 7 6 7 10 12 12 12 11 8 6 5 5 6 6 6 7 7 7 8 7 6 4 2
0 0 0 0 0 0 0 0 0 0 0 1 3 4 4 3 4 7 7 6 4 4 5 6 7 7 7 6 7 9 11 12 11 10 7 4 4 4 6 6 6 7 7 6 6 6 5 4 3
0 0 0 0 0 0 0 0 0 0 0 1 2 3 3 2 3 4 5 4 4 4 3 3 4 6 7 6 6 8 10 11 10 8 6 4 3 4 6 6 6 6 6 5 4 4 4 3 3
0 0 0 0 0 0 0 0 0 0 0 0 1 2 2 2 2 3 3 3 2 2 2 3 5 7 8 7 6 7 9 10 9 7 4 3 3 4 6 6 6 5 4 3 3 3 3 3 3
0 0 0 0 0 0 0 0 0 0 0 0 1 2 2 2 3 3 3 3 1 0 2 4 7 8 9 8 6 6 7 7 7 5 3 3 3 4 5 6 5 4 3 3 3 3 3 3 3
0 0 0 0 0 0 0 0 0 0 0 0 1 3 3 2 2 3 3 2 1 0 1 4 7 9 9 8 7 6 5 5 4 4 3 3 3 4 4 4 4 4 3 3 3 3 3 3 3

GEFSSGP_con_probscp_222.txt.gz
Probability
0 0 0 0 0 0 0 0 0 0 0 0 0 0 0 0 0 0 0 2 5 14 26 34 37 36 32 28 26 28 28 26 22 20 19 19 20 19 17 15 12 8 8 8 6 4 4 5 6
0 0 0 0 0 0 0 0 0 0 0 0 0 0 0 0 0 1 2 4 7 15 26 34 38 37 34 31 29 30 32 30 25 23 23 22 20 19 17 14 11 9 9 10 8 5 4 4 5
0 0 0 0 0 0 0 0 0 0 0 0 0 0 0 1 1 2 5 8 11 17 27 35 39 38 35 33 30 31 35 36 31 29 30 26 22 21 18 15 12 10 10 10 8 6 4 4 5
0 0 0 0 0 0 0 0 0 0 0 0 0 0 1 2 3 4 6 10 13 18 25 35 41 40 37 34 31 32 35 37 37 36 35 30 24 22 20 16 14 12 10 9 7 6 6 7 7
0 0 0 0 0 0 0 0 0 0 0 0 0 0 2 4 7 8 9 11 13 18 24 33 41 41 38 36 34 34 35 36 37 38 37 31 25 21 19 16 12 10 8 7 7 7 9 9 9
0 0 0 0 0 0 0 0 0 0 0 0 0 0 2 7 11 13 12 11 13 17 22 30 37 38 36 35 35 35 34 35 36 37 36 30 24 19 17 14 9 6 6 6 7 8 9 8 8
0 0 0 0 0 0 1 1 1 1 0 1 1 1 4 9 13 15 14 13 14 17 21 26 31 33 33 33 33 33 33 34 36 36 33 28 22 19 16 12 8 5 4 4 6 7 7 6 6
0 0 0 0 0 0 1 2 2 1 1 2 4 5 7 11 15 17 19 19 19 22 24 25 27 28 28 29 30 30 31 33 34 33 28 23 20 18 14 10 8 5 4 3 4 5 6 5 5
0 0 0 0 0 0 1 3 3 2 3 5 8 9 11 16 18 22 28 29 28 27 27 25 25 25 25 26 27 28 29 30 31 29 24 20 19 16 11 8 6 4 1 1 3 4 5 4 3
0 0 0 0 0 0 1 3 4 4 5 6 8 10 14 20 24 28 32 34 31 30 28 25 26 26 27 26 27 28 28 28 27 25 23 22 20 16 11 9 8 5 2 1 2 3 3 2 2
0 0 0 0 0 1 2 4 6 6 5 5 6 11 17 23 27 30 32 32 31 28 27 27 28 29 30 29 29 29 29 29 27 24 23 23 22 18 14 13 12 9 6 4 3 3 2 1 1
0 0 0 0 0 1 3 5 6 6 4 3 6 12 18 23 27 29 31 31 29 26 25 27 29 31 32 32 31 31 30 30 30 28 25 24 23 20 17 15 14 12 10 8 6 6 4 2 2
0 0 0 0 0 1 2 4 4 5 3 4 7 12 16 21 24 27 30 31 28 25 25 27 30 33 35 34 32 31 30 30 30 30 27 23 22 21 18 16 15 13 12 11 11 8 5 4 4
0 0 0 0 1 1 2 2 3 3 4 5 7 8 12 17 20 22 26 29 27 23 23 26 29 35 37 33 29 28 27 28 29 29 25 20 18 19 19 18 17 15 14 13 13 10 7 8 9
0 0 0 0 1 1 2 3 2 3 5 5 5 7 10 13 15 16 20 25 25 23 23 24 27 33 36 31 27 26 25 26 27 27 22 17 15 17 19 18 18 17 15 14 13 12 11 12 13
0 0 0 0 0 0 1 2 2 3 4 4 4 7 10 11 11 11 14 20 24 26 27 26 28 32 35 33 30 27 25 24 24 23 20 17 16 18 19 18 18 18 15 12 13 14 15 16 16
0 0 0 0 0 0 0 1 1 2 3 4 5 8 10 9 7 7 11 17 23 27 30 31 31 32 34 34 32 30 26 22 21 20 19 19 19 20 20 20 20 20 17 14 14 16 18 19 19
0 0 0 0 0 0 0 0 0 1 3 5 8 10 10 9 7 6 9 13 19 25 30 33 32 32 33 33 31 30 26 22 20 20 19 20 20 19 20 21 21 22 20 18 18 20 22 23 22
0 0 0 0 0 0 0 0 0 0 2 5 10 12 13 11 10 9 9 10 17 25 30 32 33 33 32 30 29 27 24 20 18 18 18 18 19 19 19 20 21 22 22 23 23 24 24 24 23
0 0 0 0 0 0 0 0 0 0 0 3 8 12 13 12 12 12 10 9 15 25 31 33 34 33 29 26 25 24 21 17 16 16 15 16 17 18 19 20 21 21 22 24 26 25 23 22 23
0 0 0 0 0 0 0 0 1 1 0 1 5 9 11 12 12 12 11 11 17 27 31 33 34 31 26 22 20 20 19 17 16 15 15 15 17 18 19 20 20 21 21 22 24 24 22 21 21
0 0 0 0 0 0 0 1 3 2 1 1 3 7 9 11 13 13 12 14 21 29 32 31 29 26 22 19 17 18 19 17 16 15 15 16 17 17 17 17 18 18 19 19 20 21 22 22 22
0 0 0 0 0 0 0 1 3 3 2 2 3 6 9 10 12 12 13 15 20 26 28 25 20 19 18 16 15 16 16 16 16 16 16 17 17 16 14 13 14 16 17 17 17 19 22 22 22
0 0 0 0 0 0 0 1 3 3 3 3 5 7 8 9 10 12 14 15 17 20 21 18 14 14 15 14 13 11 11 14 16 17 16 16 16 15 12 11 13 15 16 15 15 17 19 20 19
0 0 0 0 0 0 0 1 3 4 4 5 6 7 8 9 10 12 15 17 17 18 18 15 14 14 16 16 14 11 11 14 18 19 18 17 17 15 12 12 13 13 13 12 13 14 15 16 16
0 0 0 0 0 0 0 1 2 2 3 4 6 7 8 8 9 12 16 18 18 18 18 16 16 17 19 19 17 15 15 16 18 20 20 19 18 16 13 13 12 11 9 9 10 12 13 13 14
0 0 0 0 0 0 0 0 0 1 2 4 5 7 8 8 9 12 15 18 18 17 16 15 16 18 19 18 17 17 17 16 17 19 20 20 19 16 14 13 11 9 8 7 8 9 10 12 13
0 0 0 0 0 0 0 0 0 1 2 3 4 6 7 8 9 12 15 17 16 15 13 13 14 15 16 15 14 14 14 14 15 17 19 19 18 16 14 12 9 7 8 8 7 7 8 10 11
0 0 0 0 0 0 0 0 0 0 1 1 3 5 6 7 8 11 14 15 14 13 12 11 11 12 13 14 14 13 11 11 13 15 16 16 15 14 13 11 8 7 7 7 7 7 7 8 9
0 0 0 0 0 0 0 0 0 0 0 1 2 4 6 6 7 9 13 14 13 12 11 10 9 10 12 14 16 14 12 11 12 13 12 12 11 11 11 10 8 7 6 7 7 8 7 7 9

GEFSSGP_con_probscp_228.txt.gz
Probability
0 0 0 1 1 1 0 0 0 0 0 0 0 0 0 0 0 1 5 12 22 30 34 36 38 35 32 29 25 21 16 12 10 9 7 5 5 5 4 3 3 3 3 3 3 3 3 3 3
0 0 0 0 0 0 0 0 0 0 0 0 0 0 0 0 1 3 8 15 24 31 33 35 37 35 33 31 29 24 18 14 12 10 7 6 5 5 4 3 3 3 4 3 3 3 3 4 4
0 0 0 0 0 0 0 0 0 0 0 0 0 1 1 2 5 7 11 19 28 34 35 36 37 35 34 33 30 26 21 18 15 12 9 8 7 7 5 5 5 6 6 5 4 4 4 5 5
0 0 0 0 0 0 0 1 1 1 0 0 1 3 5 6 7 10 13 19 29 36 39 39 38 37 36 34 31 28 25 21 20 17 15 15 15 13 10 7 7 8 9 8 7 6 7 7 6
0 0 0 0 0 0 1 2 2 1 1 2 5 8 10 10 8 10 13 17 24 34 41 42 42 41 38 35 31 30 28 26 25 24 24 25 25 21 16 12 10 9 10 10 9 9 8 7 6
0 0 0 0 0 0 1 2 2 2 3 5 8 11 14 14 10 9 11 15 23 34 42 43 42 42 39 35 32 31 30 29 28 28 30 31 30 26 22 17 13 11 10 10 10 8 7 6 6
0 0 0 0 0 0 0 1 3 5 7 8 10 12 15 16 13 10 12 17 24 33 38 37 36 38 37 35 34 33 32 30 29 29 30 30 28 26 25 21 18 15 10 8 7 5 4 4 4
0 0 0 0 0 0 0 2 5 8 9 10 11 14 18 17 15 15 17 20 24 29 31 31 31 33 33 33 35 36 34 31 30 30 30 28 26 24 23 21 19 16 10 6 4 3 2 2 2
0 0 0 0 0 0 2 4 7 8 8 9 11 15 20 20 19 22 24 25 27 29 29 29 30 30 29 30 35 37 34 31 31 31 31 29 26 23 21 20 18 15 11 7 5 5 4 2 1
0 0 0 0 0 2 4 6 7 6 5 5 7 12 19 22 24 26 28 31 33 33 29 28 30 29 28 30 35 36 33 32 31 32 31 29 25 22 22 22 20 17 14 11 10 10 7 3 1
0 0 0 0 1 4 5 5 4 3 3 3 5 9 16 21 24 26 29 33 36 33 29 29 32 32 33 36 38 35 33 33 33 33 33 30 26 23 23 25 25 21 16 14 14 13 8 4 2
0 0 0 1 2 4 4 3 3 3 2 3 4 7 12 18 22 24 28 33 35 32 30 32 36 40 43 44 41 37 35 34 34 36 37 34 31 27 27 29 27 22 17 16 16 14 10 6 4
0 0 0 2 3 4 4 3 3 3 3 4 5 6 10 16 22 24 27 32 34 33 34 39 45 51 53 50 45 41 38 35 35 39 41 39 37 35 32 31 28 22 19 18 18 16 14 9 6
0 0 0 1 4 5 5 4 4 3 4 5 5 6 10 17 22 24 27 31 33 34 38 44 51 57 57 53 48 43 39 38 38 41 44 43 42 40 35 31 26 23 21 21 20 18 16 12 8
0 0 0 1 4 4 3 3 3 4 4 5 5 7 12 19 22 24 28 34 35 37 41 46 51 57 57 54 49 42 39 38 40 43 45 45 42 38 33 28 25 22 21 22 22 20 19 16 14
0 0 0 1 2 2 1 3 4 4 4 5 6 8 13 18 21 24 30 37 40 42 46 48 51 57 58 57 51 42 38 38 40 43 44 41 37 33 30 27 24 22 21 21 22 22 21 20 19
0 0 0 0 0 0 1 2 4 4 4 6 7 10 14 16 18 23 30 38 43 46 50 52 54 58 59 59 54 45 39 37 39 42 41 35 29 27 26 25 24 24 23 21 20 22 23 22 22
0 0 0 0 0 0 0 1 4 5 6 8 10 12 14 14 15 22 29 35 40 44 48 51 53 57 59 59 55 48 41 36 35 37 35 29 23 22 22 24 25 26 24 20 21 24 24 23 23
0 0 0 0 0 0 0 1 3 6 8 10 12 13 12 13 17 24 29 32 35 40 43 45 47 53 58 57 55 50 43 37 32 30 28 25 20 19 20 23 25 26 24 21 21 24 25 24 24
0 0 0 0 0 0 0 1 4 7 9 11 14 16 15 16 20 27 29 28 32 36 39 41 43 48 53 54 53 49 43 35 28 24 24 23 20 19 19 20 22 23 23 22 22 23 24 24 24
0 0 0 0 0 1 1 2 5 7 9 10 13 16 16 16 20 26 27 27 31 35 38 39 39 41 46 49 49 44 37 30 24 22 25 25 21 19 17 16 18 19 20 21 22 23 23 24 24
0 0 0 0 0 1 2 3 5 7 8 9 10 12 12 13 16 21 24 26 30 35 36 36 35 36 40 45 45 38 30 25 23 24 26 25 22 18 16 16 16 17 18 19 20 21 23 24 24
0 0 0 0 0 0 1 3 5 6 6 7 9 10 10 12 14 17 21 24 27 31 32 31 32 34 36 39 39 34 26 22 23 24 24 24 21 18 16 16 17 18 18 19 21 21 22 23 23
0 0 0 0 0 0 0 1 3 4 5 5 8 11 12 12 13 14 19 23 24 26 28 29 30 33 35 34 33 30 25 22 23 23 22 20 18 16 16 17 19 20 20 21 23 23 22 21 20
0 0 0 0 0 0 0 0 1 2 3 4 6 11 12 11 10 13 18 21 21 22 24 27 29 31 33 31 27 25 24 22 21 21 20 18 15 16 18 20 22 23 22 22 23 24 21 19 18
0 0 0 0 0 0 0 0 0 1 3 4 5 9 11 10 9 13 17 20 20 20 23 26 27 28 30 28 25 22 21 19 18 19 19 17 16 17 19 21 23 24 23 22 22 22 20 18 16
0 0 0 0 0 0 0 0 1 2 4 5 5 6 9 9 10 13 16 18 20 22 24 24 24 25 25 24 22 18 17 17 17 19 18 17 17 18 19 20 21 22 22 21 20 19 18 16 15
0 0 0 0 0 0 0 0 1 2 4 4 4 4 6 7 9 12 14 16 19 22 23 21 20 20 21 21 18 15 14 16 19 19 18 17 17 17 17 18 18 17 17 17 17 16 15 13 13
0 0 0 0 0 0 0 0 1 2 3 2 2 2 4 5 8 11 14 15 16 17 17 16 16 18 20 20 19 16 14 16 19 19 18 17 17 17 16 16 15 13 13 14 13 12 11 11 11
0 0 0 1 1 1 0 1 2 2 2 1 1 2 2 3 6 11 14 13 12 12 12 12 14 16 19 21 21 19 16 16 18 19 19 19 18 18 17 15 13 11 11 11 11 11 10 10 10

GEFSSGP_con_probscp_234.txt.gz
Probability
0 0 0 0 0 0 0 0 1 1 1 1 3 4 3 2 2 2 2 5 10 14 16 24 37 44 41 36 31 28 30 32 33 31 27 22 20 20 22 21 17 11 9 8 6 6 5 4 4
0 0 0 0 0 0 0 1 2 2 2 2 4 5 5 5 5 5 6 9 12 14 16 23 36 43 41 35 31 30 30 31 32 30 27 24 22 21 20 20 16 11 9 7 5 4 5 4 3
0 0 0 0 0 0 0 1 3 4 4 4 5 7 8 7 7 9 11 14 16 16 16 23 35 43 41 35 32 32 31 29 28 27 25 24 22 19 17 17 15 11 7 5 3 3 4 4 3
0 0 0 0 0 0 0 1 3 4 4 4 5 9 11 10 11 15 18 20 19 17 17 24 36 43 42 37 35 35 34 29 25 23 23 23 21 18 16 15 14 10 7 5 3 3 4 4 4
0 0 0 0 0 0 0 1 2 2 3 4 7 10 14 16 19 23 25 24 22 19 19 25 36 41 40 37 36 37 35 31 26 23 23 24 23 20 17 15 13 12 9 7 5 5 5 4 4
0 0 0 0 0 0 0 1 1 2 2 4 9 12 14 18 25 28 28 25 24 24 25 29 34 35 34 34 36 35 33 32 29 25 23 23 23 22 20 17 15 13 11 10 8 7 6 4 3
0 0 0 0 0 0 0 0 1 2 4 5 9 13 14 18 24 28 27 24 24 27 29 31 31 30 29 30 32 31 30 29 28 27 24 21 18 18 19 18 15 12 10 10 8 6 6 4 3
0 0 0 0 0 0 0 0 1 3 5 6 8 11 13 17 24 27 25 23 22 23 26 27 26 25 26 26 27 27 27 28 28 28 28 23 17 15 17 18 16 10 7 8 8 7 6 5 4
0 0 0 0 0 0 1 1 1 3 7 9 9 10 12 17 24 27 26 24 20 18 19 20 20 21 23 23 24 25 26 28 28 29 29 25 20 17 16 16 15 10 6 6 8 9 8 6 4
0 0 0 0 0 0 1 2 1 3 7 10 12 12 13 16 21 26 27 24 18 16 15 14 14 16 18 20 22 24 25 27 28 27 26 25 21 18 16 15 14 10 5 5 8 11 10 7 5
0 0 0 0 0 0 1 2 1 1 4 9 12 12 13 15 19 23 24 22 18 15 13 11 10 13 14 16 20 23 23 24 25 24 23 22 20 19 17 15 13 9 5 6 9 10 10 8 6
0 0 0 0 0 0 1 1 1 1 4 8 11 12 14 16 19 21 22 21 18 15 11 9 9 10 11 12 16 20 21 21 21 21 20 19 18 16 13 12 9 7 5 6 8 9 8 8 8
0 0 0 0 0 0 1 1 1 3 7 13 15 15 18 20 21 23 24 23 20 16 11 9 9 9 9 10 13 16 18 19 20 20 19 16 15 12 8 7 6 4 4 5 6 6 6 7 9
0 0 0 0 0 0 1 1 2 6 10 14 16 18 20 22 22 22 24 24 21 16 12 10 11 10 10 8 10 14 18 19 21 21 19 16 12 9 7 6 4 3 2 3 4 4 4 6 8
0 0 0 0 0 0 0 0 3 8 10 11 13 16 17 18 19 19 22 23 21 16 12 12 13 13 13 11 12 17 20 22 23 21 18 16 12 9 9 8 6 3 2 1 1 2 3 5 7
0 0 0 0 0 0 0 1 4 8 9 10 11 13 13 14 14 16 18 20 19 16 13 13 13 14 16 16 17 21 23 24 23 21 19 18 15 11 11 11 9 6 4 3 2 2 3 4 6
0 0 0 0 0 1 1 2 4 6 7 9 10 11 11 11 10 12 15 18 18 16 14 12 12 13 16 19 21 24 24 23 21 20 19 18 16 14 12 12 10 8 7 6 4 3 3 3 3
0 0 0 0 0 0 1 2 4 4 4 6 8 9 10 10 10 10 12 16 18 17 15 13 12 14 17 21 24 25 23 20 17 15 14 14 14 14 13 12 10 9 8 7 5 4 3 1 1
0 0 0 0 0 0 0 1 1 1 2 4 6 8 8 10 10 9 10 14 18 18 18 17 16 17 20 22 24 24 21 17 13 10 9 9 11 12 12 11 11 10 9 8 6 4 2 1 0
0 0 0 0 0 0 0 0 0 1 2 4 6 6 7 9 10 9 10 14 18 19 21 20 19 20 22 22 22 21 19 16 12 9 6 6 8 10 10 10 11 12 11 10 9 5 2 0 0
0 0 0 0 0 0 0 0 1 2 3 5 6 6 6 7 8 8 10 15 18 19 20 20 19 21 21 19 18 18 17 16 13 9 5 4 5 6 7 9 11 12 12 12 11 8 4 1 1
0 0 0 0 0 0 0 0 1 2 3 4 5 6 6 6 6 7 10 13 14 16 18 19 19 20 19 16 13 13 13 13 11 7 4 2 2 3 5 7 10 12 12 12 12 11 8 5 3
0 0 0 0 0 0 0 0 0 1 1 1 3 4 5 6 6 7 9 10 10 11 15 18 19 18 15 12 9 8 9 9 7 5 3 1 1 2 4 7 9 10 11 12 12 12 10 8 7
0 0 0 0 0 0 0 0 0 0 0 0 2 4 6 7 8 7 7 7 8 10 13 16 16 14 11 8 5 6 7 7 5 3 2 1 2 3 5 7 9 10 11 12 13 12 11 9 9
0 0 0 0 0 0 0 0 0 0 0 0 2 4 6 7 8 8 6 6 8 9 11 12 13 10 7 4 3 4 6 6 4 2 1 1 2 3 5 7 9 10 10 11 12 11 10 10 10
0 0 0 0 0 0 0 0 0 0 0 0 1 2 3 6 8 8 6 5 6 8 8 9 9 7 5 3 2 3 4 4 2 1 0 1 1 1 3 6 9 10 10 10 10 11 10 10 10
0 0 0 0 0 0 0 0 0 0 0 0 0 0 2 5 7 7 5 5 5 6 6 6 5 4 4 4 4 4 4 3 2 1 1 1 0 0 1 4 8 10 10 10 10 10 10 9 9
0 0 0 0 0 0 0 0 0 0 0 0 0 0 2 5 6 6 5 4 4 3 3 3 2 2 3 5 6 5 4 3 2 2 2 1 0 0 1 2 5 8 10 9 9 9 8 7 6
0 0 0 0 0 0 0 0 0 0 0 0 1 1 2 4 5 5 3 2 1 1 1 1 0 1 2 4 5 5 3 2 1 1 2 1 0 0 0 1 3 6 8 8 8 7 6 4 4
0 0 0 0 0 0 0 0 0 0 0 1 2 2 3 4 4 2 1 0 0 0 0 0 0 0 1 3 4 4 2 1 0 0 1 0 0 0 0 1 2 5 7 7 7 6 5 4 3

GEFSSGP_con_probscp_240.txt.gz
Probability
0 0 0 0 0 0 0 0 0 0 0 1 1 1 2 2 1 0 1 7 14 17 19 21 22 26 31 33 34 35 35 31 27 27 24 21 19 18 16 12 9 11 12 11 9 8 7 8 9
0 0 0 0 0 0 0 0 0 0 0 0 1 1 2 3 3 1 2 8 17 21 21 20 22 25 28 30 30 32 32 30 27 26 24 21 19 18 17 14 10 11 14 14 12 11 10 10 11
0 0 0 0 0 0 0 0 0 0 0 1 1 3 5 5 4 3 4 12 21 26 25 23 23 23 24 26 26 28 30 30 27 26 26 23 19 17 18 16 13 12 15 17 16 15 14 13 13
0 0 0 0 0 0 0 0 0 0 1 2 3 5 6 6 5 5 9 18 25 29 28 27 26 24 24 26 27 29 31 31 28 27 27 26 22 19 19 17 15 14 16 19 19 17 16 15 13
0 0 0 0 0 0 0 0 0 0 1 3 3 4 6 7 7 9 14 23 30 33 31 31 30 29 29 30 31 32 33 33 32 31 31 30 27 23 21 18 17 16 16 18 19 18 17 15 14
0 0 0 0 0 0 0 0 0 0 0 1 2 3 5 8 11 15 19 28 36 36 33 31 31 32 32 32 33 35 36 34 35 36 35 33 29 24 22 20 19 17 15 16 17 17 16 15 14
0 0 0 0 0 0 0 0 0 0 0 1 2 4 6 9 14 18 22 30 36 36 32 31 29 28 28 30 31 33 35 34 34 35 34 31 26 22 20 20 18 15 13 13 14 15 15 14 14
0 0 0 0 0 0 0 0 0 0 1 2 3 5 6 9 15 19 22 25 28 29 29 29 28 25 23 25 27 30 32 31 29 28 26 24 22 19 17 17 16 14 12 12 13 13 13 13 13
0 0 0 0 0 0 0 0 0 1 2 2 2 4 7 12 16 19 20 19 19 20 21 24 24 22 20 20 22 26 29 28 25 23 20 18 17 16 15 14 13 12 12 12 12 11 11 11 12
0 0 0 0 0 0 0 0 0 1 2 2 3 6 10 14 17 18 17 15 13 12 14 15 16 16 16 15 17 21 24 25 24 22 20 19 17 15 15 15 13 12 12 11 11 11 10 10 10
0 0 0 0 0 0 0 0 2 3 2 3 6 10 14 15 15 14 13 11 9 8 8 8 8 10 11 12 13 15 19 21 22 22 21 20 19 16 15 15 14 13 13 13 13 12 9 7 7
0 0 0 0 0 0 0 1 4 6 5 5 10 14 16 15 12 11 11 8 6 5 4 4 5 6 7 9 10 11 13 16 19 20 19 18 18 15 13 13 11 11 11 12 11 9 6 5 5
0 0 0 0 1 1 1 1 4 7 8 8 12 15 16 14 11 10 9 7 6 4 2 2 3 4 4 6 7 8 9 11 16 18 18 18 16 13 10 9 7 6 6 7 6 5 4 3 3
0 0 0 0 1 1 1 1 2 5 8 10 11 12 13 11 9 8 8 8 7 5 3 2 2 4 4 5 5 6 6 8 11 15 17 19 18 14 10 7 5 3 3 3 3 3 3 3 3
0 0 0 0 1 1 0 0 1 3 7 9 9 8 8 7 7 7 8 9 9 8 5 3 3 4 5 5 4 4 5 6 9 13 16 19 20 17 11 7 5 4 4 3 3 3 3 2 3
0 0 0 0 0 0 0 0 1 3 5 7 6 6 5 5 6 7 7 8 9 10 7 5 4 5 6 5 4 3 4 6 9 14 17 18 19 16 12 7 6 6 5 4 4 4 4 3 3
0 0 0 0 0 0 0 0 1 3 4 4 4 5 5 6 7 7 6 6 7 8 7 6 6 6 5 4 3 3 3 5 10 15 18 19 18 15 11 9 7 7 6 5 5 6 5 3 3
0 0 0 0 0 0 0 0 1 2 3 3 3 4 4 5 6 7 5 3 4 5 6 6 7 7 6 4 4 4 4 5 8 12 16 18 17 14 11 10 8 8 8 7 7 7 6 4 2
0 0 0 0 0 0 0 0 1 1 2 2 2 2 3 3 4 5 4 2 2 4 6 7 7 7 6 5 5 5 5 6 6 9 12 15 14 12 10 8 8 8 8 8 8 9 8 5 2
0 0 0 0 0 0 0 0 1 1 1 1 1 2 3 3 3 3 3 1 1 4 7 8 8 8 6 5 5 6 6 6 7 8 10 10 10 8 6 4 5 7 8 8 9 10 9 6 3
0 0 0 0 0 0 0 0 0 0 0 1 2 4 4 4 3 3 3 1 1 3 6 7 8 8 6 5 5 7 7 7 7 9 9 8 6 5 4 2 3 6 8 8 8 10 10 7 4
0 0 0 0 0 0 0 0 0 0 1 2 3 5 5 4 3 3 3 2 2 2 3 5 6 6 6 6 6 7 7 7 7 9 8 5 3 4 4 2 1 4 7 8 8 9 10 8 6
0 0 0 0 0 0 0 0 0 0 1 2 3 4 5 5 4 4 4 3 1 1 3 3 3 4 6 6 6 7 7 6 6 6 4 2 1 2 2 1 1 3 6 6 7 8 9 9 8
0 0 0 0 0 0 0 0 0 0 1 1 2 2 4 5 5 5 4 3 1 1 2 2 1 2 3 4 4 5 6 6 5 4 3 1 0 0 0 0 0 2 4 5 6 8 9 9 9
0 0 0 0 0 0 0 0 0 0 0 0 1 1 1 3 5 4 3 3 2 1 0 0 0 0 1 1 1 2 3 5 5 4 3 1 0 0 0 0 0 1 3 4 6 8 9 10 10
0 0 0 0 0 0 0 0 0 0 0 0 0 0 0 1 3 2 1 2 1 0 0 1 1 0 0 0 0 0 1 3 4 4 3 1 1 1 0 0 0 0 1 3 4 6 8 9 10
0 0 0 0 0 0 0 0 0 0 0 0 1 1 0 1 1 1 0 1 0 0 0 1 1 0 0 0 0 0 0 1 1 2 2 2 2 2 1 0 0 0 1 2 3 5 6 8 8
0 0 0 0 0 0 0 0 0 0 0 1 2 2 1 0 1 0 0 1 0 0 0 1 1 0 0 0 0 0 0 0 0 1 1 2 2 2 1 0 0 0 0 1 2 4 5 6 6
0 0 0 0 0 0 0 0 0 0 0 1 2 2 1 0 1 0 0 0 0 0 0 0 0 0 0 0 0 0 0 0 1 1 1 1 1 1 0 0 0 0 0 0 1 3 4 4 4
0 0 0 0 0 0 0 0 0 0 0 0 1 1 0 0 1 0 0 0 0 0 0 0 0 0 0 0 0 0 0 0 1 2 2 1 0 0 0 0 0 0 0 0 0 1 2 2 2